GFSNE_700_spd_015.txt.gz
Wind_Speed
43 44 46 49 52 54 56 58 61 71 74 73 71 67 66 65 63 62 62 61 58 58 57 56 57 59 60 62 64 65 65 58 46 48 50 51 59 57
45 47 49 52 54 55 56 57 59 63 73 70 70 69 67 67 64 62 60 58 56 55 53 51 54 56 58 59 59 59 57 46 53 50 48 51 53 52
47 50 53 55 57 57 58 60 62 64 69 70 69 68 67 65 65 62 61 58 54 51 52 55 55 55 50 45 41 44 47 48 53 60 55 55 54 48
51 54 55 57 58 59 60 63 64 63 64 67 67 65 62 60 59 59 58 54 54 58 59 57 52 43 41 43 44 44 40 41 40 40 40 42 43 44
53 55 57 58 59 61 63 65 64 63 60 57 60 58 56 53 55 54 54 59 63 62 52 49 41 40 40 41 40 40 42 43 42 45 47 49 50 48
54 56 58 59 61 63 64 63 60 57 55 54 55 54 51 51 53 58 63 61 57 48 44 39 39 40 41 42 41 41 43 44 44 45 45 45 45 45
57 57 58 60 61 60 58 57 55 52 50 50 50 50 54 57 58 59 56 51 45 43 45 43 44 41 40 39 39 40 43 44 44 43 43 42 43 42
57 57 59 60 58 56 54 52 48 43 44 42 49 54 57 56 48 46 47 49 52 41 43 36 36 37 35 35 33 33 36 39 43 44 45 46 46 43
56 59 59 57 55 53 52 48 44 44 44 47 52 47 44 41 44 46 45 44 44 40 43 41 35 34 31 30 28 30 34 36 39 42 45 47 47 49
57 57 56 53 51 49 46 44 44 44 41 40 38 38 39 40 39 39 43 45 43 39 38 43 35 33 30 27 25 27 30 33 38 42 43 43 44 47
57 55 52 50 46 44 44 47 44 38 35 32 32 33 31 32 35 39 40 42 41 36 30 39 37 40 36 29 22 21 28 34 37 38 39 38 39 41
54 50 47 44 42 42 43 42 39 36 35 34 28 26 29 31 31 32 36 40 42 40 35 42 42 43 45 31 22 19 26 28 31 28 25 25 26 30
50 46 43 41 40 40 37 35 35 37 34 30 30 29 29 28 29 31 33 36 39 40 36 39 41 39 38 30 13 15 19 17 18 18 22 25 26 29
46 43 41 40 39 35 32 32 33 31 31 30 30 29 30 30 30 31 31 32 33 34 35 34 36 34 30 22 14 8 12 17 20 23 24 21 21 24
42 40 39 38 35 30 30 31 30 30 29 30 31 31 33 32 30 28 28 31 28 28 28 27 27 23 22 23 21 20 19 16 22 22 19 20 20 13
41 39 37 35 30 29 28 25 26 28 29 31 32 33 31 28 26 26 28 29 27 23 21 22 21 20 19 20 24 24 27 29 27 29 26 21 19 14
40 37 34 29 28 25 21 22 24 26 27 30 32 30 27 27 25 24 25 27 27 26 19 16 18 18 20 22 25 30 32 31 28 30 28 21 15 7
36 35 31 29 27 24 23 22 24 27 29 30 27 26 27 29 27 22 24 25 24 21 18 17 15 14 16 21 26 29 32 35 32 30 23 13 8 6
34 31 28 27 23 23 23 25 27 28 29 28 23 24 26 26 25 23 22 21 20 17 16 14 13 15 18 21 23 27 31 33 32 32 31 15 8 13
29 27 25 22 23 23 24 26 26 27 27 22 23 24 24 25 24 21 21 21 19 16 13 9 10 12 17 21 24 26 29 30 32 31 28 18 16 16
24 22 21 22 22 23 25 25 26 26 23 21 22 25 25 25 22 19 18 19 18 15 10 8 8 11 15 17 18 20 25 29 31 35 29 17 29 19
23 21 21 22 23 25 24 24 23 21 20 22 24 26 25 23 20 17 16 15 16 15 11 8 8 9 11 14 17 18 20 25 25 32 35 32 23 26
21 19 20 22 24 24 24 22 21 21 24 25 26 24 22 20 17 15 14 15 15 14 12 10 8 9 9 11 14 17 18 21 22 26 30 30 28 24

GFSNE_700_spd_018.txt.gz
Wind_Speed
44 44 45 46 48 51 53 55 60 69 73 73 73 72 71 70 70 69 66 63 60 59 57 57 58 59 59 61 61 62 65 65 65 64 67 67 68 64
44 45 46 49 51 53 54 56 57 61 72 71 72 72 70 68 63 60 59 58 55 51 50 47 46 47 48 56 60 60 57 57 59 57 55 54 50 49
45 47 49 51 53 54 56 58 60 63 69 72 69 67 65 63 61 58 55 51 50 48 48 49 51 54 52 51 49 47 43 41 41 39 43 42 45 50
47 49 51 53 55 56 58 61 64 65 66 69 67 64 60 57 55 51 48 49 51 51 52 51 48 45 44 43 40 39 40 41 44 48 42 42 41 45
50 52 54 55 56 58 61 64 64 63 61 61 63 57 55 53 51 51 52 50 48 45 44 42 42 42 42 42 41 42 44 45 47 45 43 41 41 42
51 53 54 56 58 61 63 61 59 58 56 54 53 54 54 54 52 50 49 45 46 44 40 36 37 37 38 39 41 42 43 45 47 47 47 46 46 46
51 53 55 58 60 60 58 57 55 52 50 48 51 53 52 46 45 45 48 45 38 42 41 34 37 35 33 33 34 36 38 40 41 42 45 46 46 45
53 55 57 58 58 56 54 51 47 43 45 47 50 46 43 43 43 42 41 44 43 37 44 38 37 35 33 32 32 32 32 33 36 39 41 43 46 47
55 56 57 56 54 52 48 45 42 41 38 42 43 39 42 39 38 40 40 42 43 42 44 43 38 37 35 33 32 33 32 35 37 38 38 40 42 44
55 55 55 54 50 47 45 44 43 39 36 36 36 34 33 35 37 40 42 43 42 41 44 46 41 40 37 33 29 28 30 35 37 37 35 35 36 39
54 53 52 49 46 44 43 45 41 35 32 31 26 28 30 33 36 38 39 43 43 40 37 45 42 44 38 27 20 19 26 32 34 34 34 34 34 37
55 51 45 43 42 41 42 41 37 34 29 25 26 27 30 30 31 34 37 39 42 43 36 44 43 42 40 29 17 18 20 22 27 29 29 29 29 31
52 45 41 41 40 39 37 35 34 31 29 29 29 30 30 31 31 31 31 33 37 39 37 40 38 32 32 32 22 21 23 22 23 23 25 27 30 33
45 41 40 40 38 35 31 31 29 29 30 30 31 32 33 30 27 28 27 27 30 35 34 32 30 28 29 29 30 28 29 28 25 25 24 26 26 28
41 39 38 37 34 29 29 28 29 30 30 31 33 32 29 27 29 28 24 25 26 27 27 25 23 22 25 29 34 35 39 37 34 31 30 31 26 23
40 38 36 34 30 28 25 25 28 29 31 33 33 30 25 25 27 28 26 27 25 19 19 20 21 21 22 25 29 33 38 42 41 38 37 30 25 25
39 36 33 29 26 23 23 23 26 28 30 31 30 25 24 25 25 27 27 27 27 25 15 11 15 18 19 24 29 34 39 42 43 41 35 23 17 18
35 33 30 28 25 24 24 25 27 29 29 29 24 26 27 27 27 26 26 26 26 23 18 15 14 13 15 21 31 37 40 43 46 41 29 19 10 18
31 30 28 25 24 24 26 28 28 27 28 25 25 27 30 29 28 27 25 24 22 21 18 17 18 22 24 25 29 33 40 44 46 37 24 22 24 22
29 27 24 23 23 25 27 26 24 24 23 24 27 30 31 30 27 25 24 24 22 21 17 16 16 20 24 29 32 30 36 39 44 32 17 20 22 19
25 22 22 23 24 26 25 23 23 23 26 27 28 29 30 29 26 23 21 21 22 21 18 15 15 17 19 21 20 24 30 34 36 35 16 15 20 18
22 20 21 23 24 24 23 21 21 23 25 26 28 28 28 27 25 21 20 21 20 21 20 18 16 16 17 17 20 22 26 30 31 35 23 22 25 23
19 19 21 22 22 22 21 21 24 25 28 28 28 26 25 24 21 19 18 19 19 20 19 16 17 16 14 13 15 17 22 27 27 28 31 27 23 21

GFSNE_700_spd_021.txt.gz
Wind_Speed
43 43 43 43 44 47 50 52 56 64 67 66 66 68 67 68 67 67 66 64 60 57 54 53 51 50 51 51 52 54 48 50 52 57 56 58 63 58
44 43 44 45 47 49 51 52 54 58 68 65 67 67 67 67 65 62 58 54 50 49 49 48 49 48 47 47 50 51 54 56 55 57 59 60 56 53
44 44 45 47 48 49 51 53 55 57 65 69 66 64 63 61 57 53 51 49 47 41 39 39 38 40 41 43 43 44 45 44 46 45 44 44 44 45
44 45 46 48 49 51 52 54 56 57 61 66 63 60 57 54 50 46 44 42 40 39 38 35 36 37 39 41 43 44 46 44 42 43 42 43 45 46
46 47 49 50 51 52 54 56 57 58 58 59 59 54 52 47 45 43 43 42 40 38 32 33 36 35 37 39 40 41 43 44 44 46 47 46 45 44
46 48 50 52 53 54 56 58 59 57 53 51 51 52 47 43 43 45 43 35 38 36 30 33 33 32 35 35 37 38 39 41 42 42 42 44 47 48
47 49 51 52 53 55 56 56 54 51 47 46 49 47 41 41 42 39 39 38 33 39 33 33 36 35 35 35 36 37 39 38 38 37 38 39 41 44
50 50 51 52 53 54 53 50 47 44 42 43 45 41 41 40 36 38 40 41 39 35 42 36 39 38 37 36 35 37 38 39 39 38 38 38 39 40
51 51 52 54 54 52 48 44 43 38 37 39 39 37 37 35 38 38 38 41 41 40 42 40 37 37 34 30 29 33 35 37 38 37 37 36 35 35
51 51 53 54 51 47 44 43 39 35 32 32 32 30 33 35 38 41 42 44 40 36 38 44 39 35 26 20 23 27 30 31 31 30 30 28 27 27
51 51 52 49 45 41 41 40 37 31 30 28 27 28 30 33 37 41 41 41 39 32 31 41 34 31 22 16 18 21 24 26 29 28 25 24 26 27
54 51 45 41 39 38 37 37 35 31 26 23 25 28 32 33 34 34 35 37 38 35 32 40 32 31 25 20 25 25 25 26 26 27 29 29 27 28
51 44 39 38 37 35 34 32 32 29 26 27 27 30 33 32 29 28 31 33 34 34 34 37 31 26 28 29 22 27 31 32 31 30 28 27 30 31
44 38 37 36 34 33 31 29 28 28 28 30 32 33 33 29 25 27 28 28 28 32 32 31 30 28 27 27 30 31 33 34 37 37 37 29 27 28
38 36 35 33 32 29 28 26 28 29 30 32 34 33 31 25 26 29 26 27 24 26 28 27 26 25 26 28 35 37 42 39 41 45 39 25 22 23
37 35 34 32 30 28 24 25 27 29 31 33 33 30 26 26 27 30 30 29 26 21 23 24 23 24 25 28 34 39 37 43 47 48 30 23 19 21
37 36 32 28 24 22 23 24 27 29 29 29 27 26 27 28 27 29 29 28 28 28 22 18 20 20 23 30 33 34 36 41 47 37 24 21 17 19
35 33 29 27 24 24 25 25 26 26 25 25 26 30 32 31 30 28 28 28 27 25 26 23 19 17 18 18 30 33 36 42 42 31 17 27 19 20
32 29 27 24 23 24 26 26 24 23 24 26 29 31 32 31 30 28 27 27 25 25 24 24 22 24 24 25 22 28 37 39 36 21 22 22 22 22
27 25 23 22 23 25 24 23 22 22 25 27 29 31 30 30 28 27 25 26 26 24 24 21 21 22 24 26 30 26 31 35 36 24 22 18 20 14
23 21 21 22 23 23 23 21 22 24 26 29 28 27 28 28 26 25 24 24 26 24 23 20 21 22 21 19 21 21 25 28 32 29 21 12 19 19
20 19 20 22 22 22 21 20 21 23 26 27 27 26 26 25 24 24 24 25 25 23 22 22 21 21 19 17 18 19 24 25 27 28 22 22 28 31
17 18 19 20 21 21 20 21 23 25 27 27 27 25 24 22 22 22 23 24 23 23 22 20 19 19 19 18 15 16 22 23 25 25 22 23 23 27

GFSNE_700_spd_024.txt.gz
Wind_Speed
44 43 43 44 44 45 46 48 52 57 59 59 60 62 63 64 65 65 65 62 57 54 52 51 50 49 48 47 49 52 53 55 51 44 48 45 46 56
45 45 45 45 45 46 48 50 52 56 63 60 61 62 62 63 62 60 57 55 50 46 43 40 40 43 43 43 43 44 46 48 50 51 50 52 58 60
46 46 45 46 46 48 50 52 54 56 62 62 61 60 60 59 56 53 51 49 43 39 38 36 37 38 40 39 40 41 43 43 44 46 48 45 44 46
46 46 46 47 48 50 52 53 55 55 59 64 61 59 57 53 51 50 47 43 40 38 31 33 35 36 38 39 40 40 41 41 42 44 44 47 47 44
46 45 46 48 49 51 53 54 56 57 56 59 60 54 52 50 48 45 44 42 36 36 32 34 35 36 36 38 40 41 42 43 45 45 43 43 46 49
45 46 48 49 51 52 53 55 56 56 54 53 51 51 50 46 44 44 43 35 37 38 32 37 36 35 36 36 37 39 42 44 46 45 46 44 43 42
45 47 49 50 51 52 54 54 53 51 48 46 47 48 47 42 42 38 39 39 34 42 39 32 35 32 33 35 37 40 43 44 44 44 45 44 43 42
47 48 50 52 52 53 52 49 47 45 43 43 45 46 41 39 36 37 40 41 44 36 43 32 33 30 32 31 32 34 33 31 29 29 31 33 37 40
48 49 51 52 52 51 48 45 43 40 39 40 41 39 39 33 37 37 39 42 45 40 40 36 31 32 28 23 26 27 27 27 28 28 26 24 25 27
48 49 51 50 48 46 45 43 42 39 37 35 36 34 32 34 36 39 42 43 39 37 39 41 32 32 21 16 19 20 21 24 27 29 31 30 27 26
49 48 47 46 45 42 42 42 41 36 33 31 30 30 30 32 36 41 40 41 40 36 30 39 33 35 23 11 16 20 22 26 29 31 31 31 33 33
48 46 45 43 40 38 39 39 37 33 31 26 28 29 32 34 36 37 36 37 39 38 31 38 36 37 31 15 15 20 25 27 33 35 36 37 37 37
46 44 41 39 37 37 36 34 33 32 28 29 29 31 34 35 33 31 32 35 37 37 33 38 38 35 35 35 22 23 29 33 36 38 39 41 41 40
43 40 38 36 36 34 32 30 28 29 30 31 33 32 32 30 27 28 30 32 34 35 34 33 38 37 36 32 34 32 32 35 39 41 41 36 29 28
39 36 35 34 32 30 28 26 28 29 31 32 30 29 29 28 28 31 31 32 31 28 29 31 35 35 34 34 40 37 41 39 37 37 34 26 25 25
37 34 32 30 29 26 24 26 28 31 31 30 29 29 30 31 31 33 33 32 30 23 22 28 31 32 31 30 34 38 37 39 37 33 26 21 22 24
34 31 31 27 24 23 24 26 28 28 28 28 29 31 32 33 31 31 30 29 29 28 25 25 27 28 27 28 30 31 34 34 34 29 28 26 18 26
31 31 28 26 23 23 24 24 25 26 26 28 30 32 34 33 30 27 28 27 26 26 27 29 28 24 21 19 25 31 30 35 31 26 23 27 23 29
29 28 26 23 23 24 26 25 23 23 25 27 30 32 31 30 30 28 27 26 24 25 25 28 28 28 27 23 11 19 30 32 30 23 21 21 28 26
27 24 22 22 23 24 23 23 22 23 25 28 29 30 29 30 29 28 27 27 27 26 25 26 25 25 27 27 25 20 23 31 31 26 15 14 26 16
22 21 20 22 22 23 23 22 22 24 26 28 28 28 27 28 27 28 27 26 27 26 25 25 23 23 24 24 23 20 21 23 25 27 21 18 22 27
19 18 19 21 21 22 22 21 22 24 26 27 26 25 24 25 26 26 26 27 25 25 24 24 23 22 22 23 21 22 22 20 21 20 21 21 24 28
16 17 18 19 20 21 21 22 24 25 26 26 25 24 24 23 23 23 25 25 24 24 25 22 20 22 22 22 22 21 22 22 21 18 17 20 22 20

GFSNE_700_spd_027.txt.gz
Wind_Speed
42 45 45 45 45 45 45 46 49 53 53 51 54 56 58 59 61 63 64 64 60 55 53 51 49 48 47 46 44 44 43 43 45 47 47 46 51 48
45 47 47 46 46 46 46 47 49 53 58 55 57 57 59 61 61 61 60 55 52 49 47 43 42 44 43 42 40 40 40 40 39 41 43 43 41 42
47 48 47 47 46 46 47 49 51 53 58 58 58 59 59 59 59 55 50 49 47 41 41 39 36 37 39 40 40 39 39 38 38 39 40 42 43 41
48 48 47 47 46 47 49 51 52 54 58 61 60 59 57 54 52 50 46 45 41 39 36 30 35 36 38 41 41 41 41 40 42 44 45 45 45 46
47 46 46 46 48 49 51 53 54 56 57 60 60 56 52 49 49 46 45 42 40 33 35 32 36 36 40 40 39 39 39 42 42 43 43 43 44 45
46 45 46 47 49 50 52 54 55 56 56 55 54 51 49 48 45 45 42 40 35 34 37 34 40 36 35 33 33 35 39 39 32 29 29 32 36 36
44 45 47 48 50 51 53 54 53 54 52 49 48 47 47 45 42 43 40 39 35 35 46 35 39 33 31 28 31 35 35 28 25 24 24 25 25 29
44 45 47 49 52 53 52 52 50 48 46 44 45 45 43 40 40 39 38 41 43 34 43 40 34 32 28 26 29 33 30 26 24 24 24 25 26 27
45 46 49 50 50 50 50 48 45 42 41 41 42 41 40 37 38 39 37 40 42 40 42 42 32 29 28 25 26 30 27 26 25 27 29 30 30 30
46 48 49 49 48 48 46 44 43 41 38 37 36 36 34 34 36 39 41 44 41 36 37 45 34 32 30 24 21 24 26 27 28 30 32 34 37 37
48 47 47 48 46 44 44 43 40 37 34 31 30 31 33 32 34 40 39 40 41 34 32 41 38 37 31 23 18 20 26 28 31 33 36 39 40 40
46 45 45 44 43 41 40 39 38 34 31 27 26 28 31 33 33 34 35 38 40 38 33 41 40 42 38 26 20 18 22 24 29 32 36 38 40 44
45 44 42 40 39 37 36 35 33 31 29 29 30 30 30 30 30 30 32 36 40 40 34 39 40 38 41 41 28 23 23 25 29 31 35 37 40 40
43 41 39 37 35 33 33 31 29 29 30 31 30 28 30 29 31 33 34 36 37 37 33 33 38 38 40 40 38 27 23 26 31 34 37 37 34 29
41 39 36 34 33 31 29 27 28 29 31 30 28 28 30 33 34 35 34 34 33 29 29 28 34 35 37 39 40 33 34 29 30 34 36 32 28 28
39 36 33 32 30 28 25 25 27 29 30 29 29 31 32 35 35 34 36 34 33 25 21 26 31 33 35 34 36 37 33 37 35 34 34 28 25 28
38 34 32 29 26 23 23 25 26 27 27 27 30 33 34 35 33 32 33 32 31 30 26 24 26 29 30 31 32 30 31 31 30 33 31 26 18 26
33 31 28 26 23 22 23 23 24 25 26 27 30 33 34 34 33 30 31 31 31 29 30 30 30 29 26 23 28 28 27 29 30 31 25 28 25 27
29 27 26 23 22 23 24 24 23 23 26 28 31 33 33 31 32 31 30 30 29 30 29 29 30 31 31 28 14 17 30 29 30 24 24 22 25 22
26 24 21 20 22 23 23 23 23 23 26 28 30 31 30 31 31 31 29 30 30 30 29 26 28 28 29 31 28 18 19 28 29 25 18 16 19 23
22 19 19 19 21 21 22 22 23 25 27 28 29 28 28 29 29 29 28 28 30 30 28 26 26 25 27 26 24 20 19 21 25 25 23 23 20 16
17 16 17 19 20 21 21 23 24 26 25 26 26 26 27 27 28 27 27 28 28 27 28 28 24 24 24 26 25 24 24 21 19 20 22 26 30 27
13 15 16 17 19 20 21 23 25 25 25 25 25 26 26 26 24 24 24 25 27 28 27 23 21 22 23 22 24 25 25 23 23 20 19 22 24 26

GFSNE_700_spd_030.txt.gz
Wind_Speed
34 39 43 45 45 47 46 47 50 52 49 44 48 48 50 51 53 56 59 60 60 59 57 55 53 52 51 50 49 46 43 41 39 38 39 39 38 37
38 43 46 46 47 47 47 46 46 49 55 51 52 53 54 54 55 58 59 58 54 51 49 48 45 43 43 43 41 38 37 37 36 37 37 37 38 37
44 47 47 48 47 46 46 45 46 48 54 54 54 56 57 58 58 57 54 50 48 45 42 39 37 37 37 36 37 38 37 37 37 38 38 38 38 40
47 49 47 47 47 46 45 46 48 50 54 57 56 57 58 56 56 53 49 46 44 38 35 33 30 35 35 38 40 40 40 39 38 38 38 37 37 38
48 47 47 46 45 45 46 48 50 51 52 56 58 56 54 51 50 47 46 42 37 33 31 32 31 36 37 40 42 40 39 38 37 37 36 32 31 30
46 46 45 44 45 46 48 50 51 51 52 54 54 52 49 45 44 44 42 37 35 27 30 35 35 39 36 37 37 36 36 37 37 35 29 26 26 25
44 43 43 44 46 48 50 52 52 53 53 52 50 48 44 41 40 39 39 36 32 30 35 40 37 36 33 32 32 31 32 36 37 31 26 25 24 24
41 41 43 44 46 48 49 50 50 50 50 48 47 43 40 37 36 37 37 39 40 33 38 40 38 34 31 29 28 27 30 35 34 28 26 25 26 26
40 42 44 45 46 47 49 49 47 43 43 43 41 38 37 33 35 38 38 40 40 36 40 44 35 33 29 28 27 26 29 33 32 29 28 29 28 28
41 43 45 46 47 48 49 48 45 40 37 36 34 33 32 33 36 39 41 42 39 35 34 42 36 35 27 27 25 23 23 30 32 31 32 32 33 33
42 44 45 47 48 48 47 45 41 36 33 30 28 29 32 33 34 38 37 40 40 38 33 42 38 38 32 26 23 20 21 24 32 33 34 35 35 37
43 44 44 45 45 44 43 42 39 34 31 26 24 26 29 30 30 32 35 40 42 42 35 42 41 42 39 28 25 23 23 22 28 32 33 34 35 39
45 44 43 42 41 39 37 36 34 32 29 28 28 28 26 26 27 29 32 37 39 40 32 39 40 39 41 39 32 27 25 21 25 28 31 31 33 36
46 44 42 40 38 35 33 32 30 28 28 29 29 26 27 26 27 30 32 33 34 36 34 33 37 37 40 42 39 31 27 24 25 25 27 28 29 32
44 42 39 36 33 30 28 27 26 27 29 29 28 26 28 29 31 33 31 32 31 29 30 30 33 35 38 41 42 35 35 29 26 24 25 25 29 32
40 36 34 31 29 28 25 23 25 27 29 29 28 28 30 31 32 34 34 34 33 28 25 28 31 35 36 36 38 36 32 36 29 23 26 26 25 26
38 34 30 28 25 22 21 23 24 25 26 27 28 31 32 34 32 31 32 33 34 34 30 26 27 31 32 34 33 28 31 29 25 26 29 30 23 25
34 32 28 25 22 20 20 21 23 24 25 27 29 31 33 34 33 30 31 33 33 33 33 32 32 32 28 26 30 31 29 29 27 27 30 34 28 20
29 26 24 21 19 19 20 21 21 23 25 28 29 31 32 32 31 31 31 31 31 32 30 31 32 33 34 31 21 25 30 28 31 30 30 30 29 23
24 22 19 17 18 19 20 21 22 24 26 27 28 29 30 31 31 30 30 31 32 32 31 28 28 28 32 35 34 20 19 30 32 33 31 28 26 25
19 17 15 16 17 18 20 21 23 24 26 26 26 27 29 30 30 30 29 28 30 31 30 26 26 27 28 28 27 25 21 24 27 31 31 30 27 26
15 12 13 15 17 18 19 21 21 22 23 26 27 28 28 29 29 28 27 28 28 28 27 26 27 26 26 26 27 30 28 25 24 26 27 30 33 33
10 11 13 15 17 17 18 19 21 23 25 27 28 27 27 27 26 25 26 26 26 27 27 27 25 24 24 25 27 27 28 28 28 26 24 24 23 23

GFSNE_700_spd_033.txt.gz
Wind_Speed
31 32 34 37 41 45 48 49 51 53 51 42 43 42 44 48 49 51 54 55 57 58 59 59 57 57 55 55 53 52 48 47 45 41 38 38 37 37
32 34 37 40 44 48 49 49 50 52 54 48 46 48 49 50 51 55 57 59 57 55 54 53 51 50 49 48 47 45 43 40 38 38 38 38 37 37
34 36 40 45 48 50 49 48 48 49 51 51 51 51 52 53 56 57 57 56 54 50 47 45 43 42 42 41 40 39 38 37 39 39 39 40 40 39
35 39 45 49 50 50 48 48 47 48 51 54 53 53 55 55 57 57 55 52 49 43 40 38 36 35 38 36 38 39 40 40 42 41 40 39 38 36
41 45 47 50 48 48 47 47 48 49 50 53 55 55 55 52 54 52 50 45 41 35 32 31 32 34 35 37 40 42 42 42 41 40 39 37 35 33
43 46 48 46 46 46 47 48 49 50 50 52 55 55 53 50 49 48 45 38 34 28 29 32 34 36 37 40 41 42 41 40 39 38 38 35 33 33
44 45 44 44 45 46 48 49 51 50 52 53 54 53 51 46 44 41 39 36 32 30 32 34 34 36 34 35 37 39 37 38 37 38 38 35 34 33
42 41 42 43 44 46 47 49 50 50 50 50 51 50 45 42 38 37 36 37 37 27 32 31 31 34 34 34 34 35 35 37 35 38 37 35 33 33
40 40 41 43 45 47 47 49 49 45 44 46 48 43 41 37 36 36 37 37 36 31 35 38 34 38 33 33 32 31 33 34 34 37 38 36 33 34
39 40 43 45 46 48 49 50 47 44 42 42 40 38 36 34 35 38 38 39 37 34 34 43 37 38 36 31 29 28 28 28 31 34 38 38 35 33
39 41 44 46 47 48 49 49 47 42 39 36 33 31 31 32 33 37 35 38 37 36 32 42 38 40 40 32 27 23 23 25 29 32 37 40 38 35
41 42 44 45 46 46 46 46 45 40 37 31 26 25 28 29 29 32 35 38 37 40 30 41 41 41 44 33 28 24 23 23 27 30 33 38 38 39
41 42 42 43 43 43 42 41 39 37 33 28 26 26 26 26 26 28 31 35 37 37 32 39 42 40 41 45 34 29 27 24 26 27 30 34 37 38
44 43 43 43 41 39 37 35 34 31 28 28 28 26 27 25 26 28 30 33 33 34 34 35 41 41 42 43 41 33 29 28 28 25 27 29 33 35
44 43 43 41 38 34 32 30 28 26 27 27 27 26 26 28 28 31 31 32 31 28 31 33 36 37 39 42 44 36 35 29 27 27 27 26 27 31
43 40 38 35 32 29 27 24 24 26 28 27 27 27 28 30 30 32 33 32 32 27 25 29 33 36 38 38 40 38 32 34 31 28 27 23 24 27
41 37 32 29 25 23 20 21 22 24 25 27 29 30 31 31 31 30 31 32 33 33 29 26 29 33 35 37 36 31 29 28 27 28 27 27 24 25
35 31 27 24 21 17 18 18 20 22 25 27 28 30 31 31 32 30 31 31 32 30 30 31 32 33 30 27 32 31 27 29 28 27 28 31 25 21
30 24 21 18 16 17 17 18 19 22 25 26 27 28 30 31 32 32 31 31 29 30 29 30 31 33 35 33 24 26 32 30 32 30 29 29 33 27
23 19 16 14 15 15 16 18 19 22 23 24 26 28 30 31 31 30 30 30 31 31 30 27 27 29 32 37 34 23 24 33 34 35 33 33 32 30
15 14 12 12 13 15 16 18 20 21 22 24 26 28 29 29 29 29 28 28 29 29 27 26 27 28 29 30 30 29 23 24 30 34 35 36 34 32
11 10 11 12 13 15 16 17 17 19 21 24 26 28 28 28 28 27 26 27 26 27 27 28 29 28 26 29 31 32 31 29 27 28 29 30 31 32
8 9 11 13 14 15 15 16 17 19 22 24 27 28 27 27 27 27 26 26 27 28 30 30 28 26 26 30 30 31 32 32 31 28 24 22 19 19

GFSNE_700_spd_036.txt.gz
Wind_Speed
35 40 37 36 37 38 40 43 47 53 54 48 47 45 45 46 47 50 52 53 53 55 58 60 61 62 63 64 63 60 59 56 53 51 49 47 44 42
38 34 38 37 38 39 42 47 50 54 58 54 49 48 47 48 50 53 55 57 58 59 60 61 61 59 58 55 53 51 49 48 47 45 42 41 40 41
37 37 39 40 40 42 46 51 52 55 56 54 52 51 51 51 52 53 56 58 59 58 57 57 55 52 49 47 45 44 44 44 44 42 41 42 42 42
34 39 41 41 41 48 52 51 53 52 53 53 54 54 54 53 55 57 56 57 58 55 53 50 45 41 42 41 41 42 42 44 44 44 44 44 45 46
38 41 43 42 45 49 50 50 50 50 51 54 56 55 55 55 57 57 58 55 51 48 42 38 36 37 38 40 42 43 45 47 48 48 46 45 45 44
40 41 41 44 46 48 48 47 49 50 52 54 55 57 58 56 56 58 57 50 47 38 33 34 37 38 37 39 41 41 43 45 47 46 45 42 41 41
35 39 42 44 45 44 46 47 50 52 53 55 57 58 57 56 54 53 52 46 40 35 33 35 36 35 31 34 37 39 41 42 44 45 43 39 41 38
38 41 41 41 43 44 46 49 52 53 54 55 57 57 55 53 51 47 45 42 40 34 33 33 31 34 33 35 35 37 39 41 42 45 42 37 39 40
39 37 39 41 44 46 48 50 51 52 51 52 53 52 51 46 45 42 40 40 40 34 34 37 34 36 35 35 34 36 37 38 41 42 41 37 37 40
36 38 40 42 45 47 49 50 51 51 50 49 48 44 42 40 39 39 40 42 40 34 31 42 39 40 39 37 34 33 33 34 36 37 37 37 37 40
37 39 42 45 47 47 50 52 52 48 45 43 39 37 35 34 35 39 39 41 39 36 28 43 43 44 42 36 32 28 26 28 30 34 36 39 39 41
38 41 43 45 47 48 50 50 49 45 41 35 31 28 29 31 33 36 38 40 40 43 33 41 41 42 45 38 33 27 26 26 30 32 34 37 38 40
39 41 43 46 47 47 46 44 42 39 36 33 28 27 28 28 29 31 33 38 40 41 35 40 42 41 43 46 41 33 31 28 29 29 31 34 36 39
43 44 45 46 45 42 39 36 35 33 30 28 28 27 28 27 27 30 32 34 37 38 34 36 42 41 44 45 45 38 32 31 31 29 29 30 32 35
46 46 45 44 40 36 32 31 29 26 26 26 26 26 28 29 29 31 31 33 33 30 31 33 38 39 40 43 45 39 37 31 29 29 28 28 28 30
45 42 40 37 34 31 27 25 24 25 26 26 26 27 29 30 30 31 32 33 33 29 25 29 32 36 39 39 42 39 33 36 30 29 30 27 25 26
41 38 34 29 25 22 20 20 21 22 24 25 27 28 29 30 30 31 32 32 32 30 26 24 28 33 35 37 37 34 32 28 26 29 29 26 23 24
35 31 26 21 18 15 14 15 19 21 22 24 26 28 30 31 31 29 31 31 30 29 29 29 30 30 29 27 33 32 24 29 28 28 29 31 28 24
27 23 17 14 12 13 14 16 16 18 21 23 25 27 28 29 30 30 30 30 28 28 27 27 28 33 37 36 26 28 36 34 34 33 33 33 35 29
22 15 12 11 11 12 13 14 16 17 19 21 23 25 27 29 29 29 29 31 30 29 27 26 28 31 35 38 36 29 27 33 36 38 38 36 33 30
12 10 10 11 12 12 13 14 16 17 18 20 22 24 26 28 29 30 30 29 30 30 30 28 29 30 31 32 34 32 28 30 33 36 35 35 34 32
7 9 10 10 11 12 13 14 14 16 16 18 21 23 25 27 29 30 31 32 30 30 30 30 31 32 30 33 34 35 34 31 26 26 24 25 27 30
8 9 10 11 12 12 12 13 14 15 17 18 21 23 25 27 29 31 32 32 34 33 33 32 31 31 30 31 34 35 32 32 32 28 21 21 21 20

GFSNE_700_spd_039.txt.gz
Wind_Speed
43 41 42 38 36 41 44 42 44 46 47 43 47 50 52 52 50 51 51 52 53 54 55 55 57 58 60 62 63 64 66 67 66 61 57 53 52 50
50 50 38 42 40 41 41 44 45 46 51 51 53 53 54 51 50 51 52 54 55 56 57 59 61 62 63 64 64 64 62 58 52 49 47 45 44 43
56 48 42 42 43 46 43 44 47 49 53 57 55 54 53 52 50 52 54 56 56 58 60 61 62 63 63 63 61 57 51 47 45 44 43 42 43 42
51 39 37 45 48 42 44 47 50 53 54 54 54 53 53 52 53 55 56 57 60 60 60 58 59 59 58 54 50 48 45 42 43 44 46 46 46 44
50 48 41 43 44 43 46 46 49 50 50 52 53 53 54 54 56 57 59 60 59 58 55 54 53 51 47 45 45 45 45 44 44 45 47 46 45 44
47 41 36 37 37 40 43 46 47 47 48 50 52 54 55 55 58 60 62 60 59 54 46 46 45 41 40 43 44 44 43 42 43 45 46 45 44 43
36 29 32 35 39 42 41 43 45 47 50 52 54 55 57 58 59 60 60 59 54 47 39 38 40 39 38 38 39 39 40 42 45 47 46 46 45 43
27 30 35 38 38 39 41 44 48 51 52 54 56 56 57 57 56 56 56 54 50 40 36 35 37 35 35 37 35 35 38 42 44 44 45 45 43 43
30 33 35 36 37 40 44 46 49 51 52 54 55 55 54 52 54 51 48 45 43 39 38 36 35 35 35 37 35 35 37 40 40 42 44 44 43 43
31 34 35 37 40 43 46 49 51 51 50 52 51 49 49 47 45 44 43 43 43 39 36 41 39 39 39 36 34 33 35 35 37 40 42 42 41 41
32 34 37 40 43 46 49 51 51 49 49 48 45 43 41 38 37 39 40 42 42 40 32 41 41 43 41 36 32 29 28 30 32 34 37 39 41 42
33 37 41 44 46 47 49 51 51 49 46 40 35 32 30 30 33 36 39 42 43 45 36 43 41 43 46 39 36 32 29 29 30 31 35 37 39 41
35 38 41 45 47 49 49 49 46 42 38 34 29 26 27 28 29 31 34 38 41 42 37 43 43 42 44 47 42 35 32 29 29 29 30 33 36 39
40 42 45 47 48 46 43 40 36 33 29 26 25 25 26 27 28 31 32 33 36 39 35 37 43 42 44 45 45 37 33 30 30 27 28 29 32 35
44 45 45 44 41 38 33 29 25 22 21 21 22 24 26 27 28 30 31 33 33 32 33 34 37 39 41 43 46 41 37 30 28 29 29 30 30 31
42 40 39 36 31 25 21 19 18 19 19 21 22 24 27 28 29 32 32 32 31 27 26 29 33 37 40 40 42 39 34 38 30 29 32 30 28 28
36 32 27 23 19 17 16 16 17 19 20 21 23 25 26 27 28 29 31 30 30 29 25 25 28 32 34 37 38 35 33 28 26 29 31 30 27 26
28 22 18 13 11 11 12 14 17 17 19 21 23 25 26 27 27 27 30 31 31 30 29 29 30 31 30 29 34 31 25 30 29 29 29 33 28 25
18 12 10 9 10 11 12 13 13 16 18 20 22 24 26 26 29 30 31 32 32 32 30 30 30 34 38 38 28 29 38 35 36 34 32 31 33 29
9 8 8 9 10 11 12 13 14 16 18 20 21 23 26 29 30 31 33 34 34 33 31 30 30 32 36 39 39 30 28 34 34 34 33 32 31 29
7 7 8 10 10 11 13 14 15 16 18 20 22 24 26 29 31 33 34 34 35 34 33 31 30 31 33 33 34 30 26 24 28 32 31 31 28 24
6 8 9 10 11 12 14 15 16 18 19 21 23 25 27 30 33 35 36 37 35 35 34 33 31 32 31 31 33 32 27 22 29 30 27 25 27 29
7 9 10 11 12 14 15 16 18 19 21 22 23 25 28 31 34 36 37 36 35 35 36 35 32 31 30 30 31 30 25 29 32 27 28 29 25 25

GFSNE_700_spd_042.txt.gz
Wind_Speed
43 42 41 46 39 42 49 44 47 45 45 43 43 43 46 48 51 57 57 55 53 52 52 52 52 53 55 56 57 58 59 61 62 63 64 64 64 63
42 44 46 45 47 52 52 44 49 48 49 48 44 45 48 53 54 54 54 53 53 53 54 55 55 57 58 60 61 62 63 64 63 62 62 59 55 51
41 48 51 48 50 60 53 57 52 49 50 49 48 48 50 50 50 51 51 53 53 54 55 56 58 60 62 64 65 64 63 60 58 53 48 46 44 44
42 49 45 59 47 55 54 50 50 44 46 47 47 48 49 48 48 50 52 54 55 56 57 58 60 63 64 63 61 60 58 55 50 45 44 44 44 44
51 41 50 46 51 51 47 41 40 41 45 47 47 47 47 47 49 51 53 55 57 58 57 57 59 58 55 54 53 52 48 46 45 44 44 44 43 41
50 39 47 48 45 43 37 36 40 42 44 44 45 47 49 50 53 55 57 57 59 58 53 53 53 48 45 44 44 43 43 43 42 42 42 41 40 40
36 44 45 38 36 34 35 38 40 41 41 43 46 49 50 52 53 56 59 60 59 54 47 44 41 37 35 38 40 39 39 40 41 42 43 43 43 44
41 34 32 29 31 36 38 38 40 41 44 47 49 51 52 53 55 57 57 56 55 46 41 35 35 34 33 35 34 34 35 37 39 41 42 43 45 45
27 25 29 31 34 33 35 38 42 43 46 49 50 50 53 53 54 51 47 45 43 39 40 36 36 34 34 34 33 34 34 35 36 38 40 41 42 43
23 27 29 31 34 36 39 41 43 43 46 48 49 49 47 45 43 42 41 41 40 40 38 40 37 38 38 34 31 31 32 33 34 36 38 40 42 43
24 28 31 33 36 39 43 45 47 47 47 44 41 38 37 35 35 37 37 39 39 38 34 42 38 39 38 34 31 28 27 29 32 35 37 40 42 44
28 32 36 39 40 43 45 47 46 43 39 34 30 28 27 27 30 32 35 38 39 42 36 42 39 40 43 35 32 29 27 26 27 29 33 36 39 42
31 34 37 40 42 44 44 44 42 37 29 24 21 20 21 23 25 27 31 35 38 38 35 42 42 40 42 43 34 31 29 26 26 27 29 33 36 39
35 38 41 43 43 42 39 34 27 21 18 17 17 19 20 21 23 27 29 32 35 37 34 37 41 40 42 43 41 32 28 26 27 25 27 29 32 34
41 43 42 39 36 31 24 19 15 14 13 14 15 18 20 23 25 26 28 30 30 31 33 33 36 37 39 40 42 35 35 28 26 27 27 28 27 28
38 38 35 32 24 16 12 11 10 10 11 12 15 19 21 23 25 28 29 30 29 25 27 31 34 36 37 36 38 37 33 35 26 26 29 27 27 28
32 28 23 16 11 10 9 9 10 11 13 15 18 20 21 23 25 28 31 31 33 33 28 27 31 33 34 36 36 33 31 27 27 27 30 30 26 27
21 14 9 7 7 8 9 11 12 13 15 16 19 20 22 24 26 28 32 35 36 34 34 32 33 32 30 27 32 31 25 28 26 26 28 32 29 23
8 5 5 6 8 9 10 11 13 15 16 18 20 22 24 27 30 32 35 37 37 37 34 33 34 36 38 36 27 28 34 32 29 24 26 28 30 24
3 4 5 7 9 10 11 13 15 16 18 20 22 24 26 29 31 34 37 39 40 38 33 30 32 34 36 39 39 27 25 27 28 29 32 27 28 27
3 5 7 8 10 11 13 15 17 18 20 21 23 25 27 30 32 35 37 37 39 38 35 31 31 31 32 33 32 28 22 24 24 29 31 31 32 28
5 7 9 10 12 13 15 17 19 21 22 23 24 26 28 31 34 35 36 37 37 36 35 32 31 31 31 31 31 31 28 21 21 23 28 32 36 40
7 9 11 13 14 16 17 18 20 22 23 22 23 26 29 31 33 35 35 37 39 38 37 36 33 31 32 31 30 29 26 26 22 22 26 30 33 37

GFSNE_700_spd_045.txt.gz
Wind_Speed
41 41 42 44 44 46 51 45 53 42 47 47 52 48 49 50 50 51 52 51 54 55 53 52 51 51 51 51 52 53 53 54 56 57 58 59 60 60
42 42 41 42 45 48 52 50 52 48 50 53 56 55 50 52 49 52 52 53 52 53 53 54 55 55 55 54 56 56 57 59 60 61 61 62 61 61
46 44 42 45 45 50 55 49 55 50 50 52 53 53 51 46 46 47 47 50 52 52 53 54 56 57 57 58 59 60 62 64 64 61 59 56 55 54
42 43 44 47 48 54 52 48 51 48 49 51 49 47 46 45 46 47 47 51 52 53 53 53 56 58 59 61 62 62 63 63 59 56 53 50 47 45
44 52 41 45 47 50 50 50 43 42 44 43 42 41 43 45 45 46 49 51 52 53 52 54 57 58 58 57 57 57 55 53 52 50 48 45 44 43
39 43 41 43 48 45 44 39 41 40 40 39 40 42 44 43 46 48 50 50 53 53 53 55 55 52 48 45 45 44 43 43 44 43 43 42 40 39
39 40 39 41 37 36 35 36 36 36 40 41 40 41 43 46 47 50 53 55 54 50 48 44 41 37 34 36 39 40 40 40 41 40 41 41 40 39
33 32 31 28 26 27 31 34 37 38 38 40 40 42 45 48 50 51 52 49 46 39 38 33 33 32 32 34 33 35 36 37 39 40 40 41 41 41
23 21 21 24 27 31 35 36 35 37 40 42 43 44 47 47 47 44 40 38 36 32 34 32 31 31 32 31 31 31 31 34 35 37 37 38 38 39
15 18 22 25 30 32 35 38 37 37 39 41 43 44 43 39 36 32 29 30 30 29 33 38 33 35 35 31 28 28 29 31 32 34 35 37 38 40
19 22 25 28 33 36 39 38 38 40 40 40 39 36 31 26 26 27 27 30 32 29 31 37 33 36 33 27 24 22 23 25 28 31 34 36 39 41
23 27 30 34 36 37 40 39 40 39 36 31 25 21 19 20 21 24 27 30 33 33 35 38 33 38 34 25 22 22 22 23 26 29 32 35 37 40
28 32 35 37 39 39 39 37 34 28 20 14 12 12 14 16 19 23 27 30 31 30 34 40 34 34 38 35 25 23 22 22 24 25 28 32 35 38
34 37 38 38 38 35 31 25 17 12 9 8 9 10 13 16 19 21 23 25 28 31 32 37 39 37 38 38 34 26 24 24 27 26 28 30 32 34
37 38 35 31 26 21 13 10 8 7 8 9 11 13 15 16 18 19 22 24 25 28 32 36 39 39 39 39 39 31 34 23 25 27 27 27 27 28
35 30 24 19 12 9 8 8 8 8 10 11 12 14 15 17 20 22 23 25 26 25 29 32 36 38 38 37 38 35 32 36 29 27 30 25 25 27
22 18 12 7 5 6 6 7 8 10 11 13 14 16 17 17 21 24 27 28 32 32 31 31 33 34 34 34 35 33 33 29 28 27 28 26 20 22
13 7 5 5 5 6 8 10 11 12 14 15 17 18 20 21 22 25 29 31 33 34 35 35 35 34 31 29 30 29 28 27 25 25 24 24 20 19
4 3 4 5 6 8 9 11 13 15 16 18 19 21 22 23 25 26 29 32 33 33 33 35 35 37 38 37 30 30 29 28 29 25 22 22 21 17
4 4 5 7 8 10 12 13 15 16 18 19 21 22 23 24 25 29 31 34 34 34 34 34 34 34 35 37 38 30 26 28 25 25 21 20 20 20
5 6 7 9 10 12 13 15 17 18 19 20 21 21 22 25 27 30 32 33 36 37 38 36 34 33 32 33 34 30 24 25 25 27 25 24 24 23
7 7 9 10 11 13 15 16 18 20 21 23 21 21 22 25 28 31 33 35 35 36 37 36 33 32 30 32 33 31 25 23 23 26 24 23 25 26
9 10 11 12 13 15 16 17 19 20 22 22 21 22 23 25 30 33 35 36 36 37 39 39 37 35 32 32 33 31 27 25 24 23 20 22 23 25

GFSNE_700_spd_051.txt.gz
Wind_Speed
52 50 52 51 48 47 50 49 46 48 51 53 55 45 48 53 49 51 52 54 51 50 52 54 54 52 55 55 58 55 54 52 52 54 53 53 54 55
49 49 51 51 48 46 47 47 45 49 53 54 57 51 49 50 51 55 51 50 49 47 49 53 53 52 51 52 51 52 53 53 53 53 55 56 57 58
46 44 45 46 47 46 45 47 49 45 60 54 52 53 55 50 50 48 44 48 47 46 47 48 48 51 51 51 52 53 55 54 57 57 57 59 60 60
47 46 44 44 44 44 45 45 51 51 46 56 48 50 49 46 44 45 43 44 43 44 46 46 49 52 52 52 54 54 55 57 59 60 60 61 61 59
41 42 43 44 44 42 42 43 45 52 47 53 48 43 43 41 39 39 39 41 44 45 46 47 49 49 50 52 54 56 56 56 55 54 51 48 46 45
34 36 37 38 40 41 41 43 47 48 47 45 45 39 37 37 38 40 41 43 44 42 44 46 47 49 50 51 50 47 43 41 40 40 40 41 41 40
31 31 32 33 34 39 40 44 47 45 37 35 36 36 37 39 41 42 41 42 42 42 45 45 46 45 39 33 31 32 35 37 40 41 42 41 40 40
26 28 30 29 30 36 39 35 34 32 30 34 37 38 42 42 44 42 42 43 42 41 44 32 31 25 26 28 30 32 34 36 38 39 39 39 38 38
20 23 29 27 30 30 33 32 30 31 36 38 39 40 41 42 42 41 41 40 31 24 23 17 24 24 25 24 26 29 33 36 37 38 37 37 36 36
22 22 21 20 23 24 28 32 33 37 40 40 41 41 42 42 41 36 28 19 14 17 24 21 22 23 24 21 24 27 31 34 36 37 37 37 36 35
10 13 17 23 26 29 33 35 38 41 42 42 43 41 37 31 22 13 12 12 13 16 22 23 22 26 22 19 21 24 27 30 33 36 37 39 39 38
17 20 24 28 32 35 39 41 42 42 40 36 29 22 16 11 10 10 12 14 16 15 23 21 22 29 30 18 20 22 25 27 31 32 33 36 37 39
25 28 31 34 37 39 38 37 33 28 22 17 13 10 9 9 11 13 15 15 17 19 25 31 25 28 32 34 24 24 26 26 29 29 31 33 34 36
29 31 33 34 34 33 30 24 19 14 12 11 11 10 11 13 15 17 18 19 19 22 26 32 34 34 35 35 35 30 28 28 29 28 30 30 31 32
31 32 32 30 26 22 18 13 11 10 10 11 12 13 15 17 19 20 21 23 22 24 27 31 35 36 36 36 39 34 36 30 29 30 31 31 29 28
33 32 30 24 20 14 10 10 10 10 11 13 14 15 17 19 21 22 23 25 24 23 26 30 34 36 36 35 39 39 37 38 33 30 33 33 32 29
33 30 25 19 12 10 11 10 11 12 13 14 16 17 19 20 21 24 25 26 26 24 23 27 31 35 37 37 38 39 38 35 34 33 33 32 30 27
31 27 22 14 11 11 11 12 13 14 15 16 18 19 21 22 23 24 26 26 26 25 25 27 30 34 36 34 37 39 36 35 32 31 31 32 29 26
28 23 16 13 12 12 13 13 15 16 17 19 20 22 23 24 25 25 25 26 26 27 28 30 33 37 41 41 36 38 37 35 33 31 31 32 32 25
24 18 14 13 14 14 15 15 17 19 20 21 23 24 26 26 25 25 26 28 28 30 31 31 34 37 41 43 44 38 32 31 31 32 30 30 31 28
21 17 16 15 16 16 17 18 19 21 22 23 24 26 27 28 27 28 29 30 32 34 36 35 35 38 42 42 44 38 34 31 30 32 32 31 31 30
20 17 17 17 17 18 20 21 21 22 24 25 26 27 29 31 31 31 32 33 33 36 37 38 38 40 42 43 42 40 37 32 30 30 30 30 30 31
20 18 19 19 19 20 21 22 23 23 25 27 27 29 31 32 33 34 34 35 36 37 38 40 40 41 43 43 43 42 40 34 32 32 31 29 31 28

GFSNE_700_spd_054.txt.gz
Wind_Speed
45 43 43 45 50 49 49 50 49 48 53 57 51 53 49 42 49 42 38 46 43 41 48 48 48 48 48 52 52 51 50 49 46 46 47 47 47 49
45 45 44 43 45 46 45 47 48 49 53 53 46 53 48 42 38 43 43 45 47 48 49 47 45 46 49 47 48 48 46 45 45 48 49 48 49 49
36 38 44 43 39 39 38 43 45 48 51 49 43 40 43 45 41 41 42 43 44 44 45 43 43 44 44 43 44 44 46 48 48 49 50 50 51 52
32 30 33 37 39 38 41 39 41 40 38 35 35 37 41 41 41 43 42 42 42 39 38 37 40 41 43 43 46 46 46 47 49 50 52 54 54 53
32 27 31 35 35 34 36 38 40 43 40 41 41 44 47 45 41 42 38 37 39 36 36 38 39 42 42 43 44 46 48 49 50 50 48 45 42 40
33 26 27 29 31 32 32 34 35 37 41 40 46 46 48 40 39 37 35 36 35 37 40 39 40 41 43 44 45 45 44 41 38 35 34 35 36 36
39 37 36 28 28 29 32 32 34 38 35 34 41 37 36 37 35 35 36 37 37 38 42 39 42 43 41 38 32 29 29 32 34 35 36 36 36 35
35 33 38 24 29 29 26 28 31 36 40 36 34 35 37 39 39 38 39 38 37 40 43 37 41 28 21 21 24 27 29 32 34 35 36 35 33 33
20 21 20 20 22 24 31 31 30 31 32 32 34 38 38 39 40 39 40 39 38 35 30 14 18 15 19 21 24 26 29 32 34 34 34 33 33 31
11 11 14 16 18 20 22 26 29 32 34 36 37 39 41 41 41 38 34 27 19 16 15 9 18 15 15 16 20 23 28 32 35 37 36 35 35 34
12 14 15 18 22 25 29 32 36 38 40 41 41 40 37 32 27 20 13 9 11 14 19 14 16 16 14 13 17 22 26 31 34 35 35 35 36 36
19 21 22 25 28 31 34 36 37 37 37 35 29 23 19 14 11 10 11 12 12 13 21 19 19 25 22 11 15 19 22 26 29 31 32 34 35 37
24 24 25 27 28 30 31 31 30 27 22 17 14 11 10 10 10 11 13 14 15 16 24 26 21 24 27 28 15 18 22 24 27 28 30 32 33 35
27 27 28 30 30 29 28 24 20 16 12 11 11 11 11 11 13 15 16 18 19 19 23 29 28 28 28 28 28 22 23 26 28 29 30 29 30 31
29 30 32 31 30 27 23 16 12 11 11 11 11 12 14 15 16 18 20 21 21 21 23 27 29 29 31 31 34 28 32 27 29 31 31 30 28 28
32 33 32 30 27 22 15 11 12 12 11 12 13 14 15 17 18 20 21 23 23 22 24 25 28 30 31 31 33 32 32 35 32 32 34 30 28 27
33 33 31 28 23 17 13 13 12 11 13 14 14 16 17 18 20 22 23 25 26 25 23 24 27 29 31 34 34 34 34 33 35 35 32 30 28 26
34 32 29 24 19 15 13 13 13 13 14 15 16 17 18 19 20 22 24 26 27 25 25 26 27 31 34 31 34 35 34 35 35 36 36 35 31 28
33 31 27 22 17 15 14 14 15 15 16 17 18 19 20 21 22 23 25 27 26 27 27 28 30 34 39 39 33 32 37 35 36 38 37 35 35 29
31 28 24 19 17 16 16 17 17 18 19 20 20 21 22 23 24 25 26 28 29 29 30 30 31 34 39 41 42 33 33 36 37 38 36 33 34 31
28 25 22 19 18 18 19 19 20 21 23 23 24 24 25 27 27 29 29 30 32 32 32 31 32 34 38 41 43 39 35 33 35 36 37 35 34 31
26 23 21 19 20 21 21 22 23 24 25 26 26 27 27 29 30 32 32 32 32 33 34 33 33 35 36 40 42 43 40 36 33 33 33 33 34 36
24 22 21 21 22 23 24 25 25 26 27 28 29 29 30 31 32 33 33 33 34 34 35 36 35 35 37 40 43 44 43 40 38 36 35 30 30 30

GFSNE_700_spd_057.txt.gz
Wind_Speed
39 39 42 45 44 40 48 39 41 41 41 45 45 45 46 50 54 47 42 49 46 47 38 39 39 37 43 44 47 50 50 47 46 46 46 47 45 43
38 38 37 36 34 39 46 37 38 42 46 42 42 41 46 45 43 40 28 30 32 30 36 35 38 40 43 45 46 46 46 47 46 45 45 44 42 42
40 37 33 32 33 33 36 35 44 43 42 42 44 37 36 36 31 23 32 33 33 36 38 38 38 40 41 42 43 41 42 43 41 41 42 43 42 44
37 34 35 34 30 31 33 32 35 34 35 37 30 25 24 28 31 33 34 34 33 36 35 35 33 34 33 34 37 39 40 41 41 42 43 44 46 46
32 32 31 31 28 27 30 34 30 29 32 32 29 25 30 32 32 30 31 30 30 30 33 32 33 34 34 36 38 40 40 42 43 45 46 45 44 43
33 30 28 31 28 24 22 26 30 28 29 30 32 31 33 32 34 31 30 29 29 30 32 33 35 35 36 38 40 41 42 42 42 41 37 34 32 32
12 22 25 26 26 30 26 27 28 27 28 32 30 33 35 34 33 32 31 30 31 34 34 36 36 37 38 40 39 38 34 29 27 28 29 30 30 30
10 15 16 16 19 20 24 28 29 27 30 33 29 30 31 30 31 33 34 33 34 39 38 35 40 35 33 24 20 20 22 25 27 29 30 30 29 29
11 14 15 17 21 19 21 23 25 25 25 26 28 30 32 34 36 37 38 38 38 37 33 26 24 15 13 15 17 19 21 24 27 29 29 29 29 29
13 13 14 14 15 18 20 22 25 27 29 31 33 35 35 35 34 31 28 24 21 16 8 9 12 11 11 14 16 19 23 25 28 29 30 30 30 30
17 18 19 20 21 23 26 27 29 31 32 33 33 33 31 27 23 19 14 10 10 12 13 10 14 12 12 15 17 20 24 27 29 30 30 31 31 32
21 22 23 22 23 24 25 27 28 28 28 26 23 20 17 14 12 12 10 10 11 14 20 17 17 19 16 15 18 22 25 28 28 29 30 31 32 34
22 23 24 25 27 28 28 28 27 25 22 17 15 13 12 12 12 12 12 14 15 16 22 22 20 24 26 22 16 21 23 25 27 28 31 32 33 34
24 25 27 28 29 28 27 26 23 19 15 13 13 12 12 12 13 14 16 17 18 19 23 26 24 26 27 26 21 16 18 22 24 27 29 31 31 32
26 27 28 29 28 27 25 22 17 14 13 14 13 13 13 14 15 16 18 19 19 21 23 26 27 27 27 26 25 19 23 20 24 28 28 29 30 30
27 28 29 29 28 25 21 18 15 15 15 15 15 15 15 16 18 19 19 21 20 21 23 26 28 28 27 28 29 25 27 30 27 29 30 30 29 29
28 29 30 29 27 23 19 16 16 16 16 17 17 17 18 19 20 21 22 22 22 21 22 25 27 28 28 30 31 30 31 30 32 32 32 32 29 26
28 28 29 27 24 21 18 17 17 17 18 19 19 20 20 22 22 22 24 24 23 24 24 25 27 29 31 31 33 34 32 33 32 33 33 35 31 28
29 29 28 26 23 21 18 18 18 19 19 20 21 22 23 23 23 23 24 25 25 26 25 26 28 32 34 34 30 33 33 34 35 34 33 34 35 33
29 29 27 25 23 21 20 20 21 21 22 22 23 24 25 25 25 25 26 27 28 28 27 26 29 32 35 35 35 29 29 36 35 36 34 36 36 37
28 27 25 24 23 22 22 22 23 24 25 25 26 26 27 27 27 28 28 29 31 31 30 27 28 32 34 37 37 33 30 30 35 36 37 39 39 39
26 25 25 24 24 25 25 25 25 26 27 27 28 28 28 29 30 30 30 31 31 31 31 30 30 32 33 37 37 38 35 33 34 34 37 39 41 43
25 25 24 24 25 25 25 25 25 26 28 28 29 28 29 29 30 31 31 31 32 32 32 32 31 32 34 37 40 40 40 39 39 38 37 35 35 36

GFSNE_700_spd_060.txt.gz
Wind_Speed
38 39 41 41 40 38 36 35 39 39 43 49 42 35 38 38 39 38 42 41 38 36 22 27 32 32 29 32 34 37 39 45 44 45 47 47 44 42
34 37 38 39 42 38 35 33 33 34 41 37 44 44 39 35 38 37 41 35 35 28 26 29 28 29 34 37 38 39 42 44 43 42 43 44 42 41
35 36 35 35 35 33 35 35 34 33 32 42 34 34 32 26 33 26 21 15 23 23 31 33 34 36 38 38 38 41 42 41 41 40 38 37 38 40
29 29 33 30 27 29 31 30 31 34 33 28 30 23 24 20 17 19 25 24 22 29 27 30 36 34 34 37 37 37 38 38 38 38 38 40 39 40
27 27 28 26 26 27 27 28 26 26 26 27 23 24 24 17 22 26 25 26 26 27 28 30 32 33 33 33 34 35 36 37 38 40 41 41 41 42
25 23 23 20 22 24 24 28 31 34 31 24 27 29 21 24 24 25 26 24 25 26 27 31 31 32 34 36 37 37 37 39 40 41 41 41 40 39
14 8 9 12 16 21 25 28 27 23 24 26 31 27 28 27 24 23 24 26 27 29 31 33 34 35 36 38 38 39 40 40 39 37 33 30 28 27
11 12 13 14 14 15 17 17 20 25 26 27 28 27 25 24 26 27 27 29 31 35 35 32 37 36 37 36 35 31 25 22 22 24 25 26 25 25
12 13 14 15 16 15 18 20 20 22 24 26 29 30 30 31 32 31 33 34 32 33 30 27 31 27 20 15 14 15 18 20 22 23 24 24 24 23
13 15 16 17 18 19 22 24 26 28 29 31 32 33 34 33 31 29 27 23 20 19 12 13 9 10 11 13 14 17 20 22 24 25 26 26 25 25
16 17 18 19 19 21 22 24 26 28 29 30 30 30 29 26 23 20 17 15 13 12 9 10 12 13 14 16 17 19 23 26 28 29 30 30 29 28
20 21 22 22 23 24 25 27 27 28 27 27 27 26 23 20 18 16 14 14 13 15 16 14 14 16 17 19 20 23 27 30 31 32 33 33 33 32
22 23 24 25 26 27 28 29 28 28 28 25 23 20 18 18 17 16 15 15 16 17 20 21 19 21 22 21 21 24 29 30 31 32 33 34 33 34
24 24 25 26 28 29 30 29 29 27 24 21 19 19 19 20 19 17 18 18 19 20 22 24 22 25 26 24 20 22 27 27 28 27 29 31 31 32
25 25 25 26 27 28 29 28 27 24 21 20 20 20 21 20 20 21 21 22 21 22 24 25 26 26 28 28 24 20 23 23 25 27 30 31 30 31
26 26 26 27 28 28 28 26 24 22 21 21 21 21 22 22 23 23 24 25 23 24 26 27 28 29 29 29 28 23 24 27 24 27 32 31 30 31
27 26 27 27 28 27 25 24 23 22 21 22 23 23 23 24 25 25 26 26 26 25 25 29 31 31 31 30 29 26 27 29 28 30 33 34 32 31
27 27 27 27 27 26 25 24 23 22 23 24 24 25 26 26 26 27 28 28 27 27 26 27 30 32 33 31 32 30 30 31 29 32 34 37 34 30
28 27 27 27 26 26 25 24 24 24 24 26 26 27 27 28 28 28 29 30 29 28 27 27 30 33 36 33 29 30 32 30 33 33 34 35 36 30
28 28 27 26 25 25 24 24 24 25 26 27 28 29 30 30 30 30 30 31 31 30 29 28 30 34 36 36 34 24 28 33 33 34 32 35 36 35
31 29 27 26 25 25 24 25 25 26 27 28 29 30 31 31 30 31 31 31 32 33 32 29 30 33 34 35 35 30 26 29 35 37 36 38 37 38
31 29 28 26 25 25 25 26 26 26 27 28 28 29 29 30 30 30 31 32 32 33 33 32 30 32 33 35 36 36 32 29 31 36 39 40 40 43
30 29 27 26 26 26 27 26 26 26 27 27 26 27 28 28 29 30 31 31 33 33 33 33 32 32 33 34 37 37 36 35 35 36 36 38 39 41

GFSNE_700_spd_063.txt.gz
Wind_Speed
34 34 35 36 37 38 39 37 36 38 41 36 33 35 34 34 35 31 51 47 41 37 33 30 29 18 24 26 24 22 21 29 32 36 36 38 40 43
29 29 31 35 38 37 37 36 33 34 36 38 36 35 32 32 28 19 28 25 20 23 25 24 24 21 26 32 28 30 32 33 34 35 36 39 41 42
27 28 32 34 32 33 35 33 29 30 33 33 32 30 25 22 19 19 16 10 14 16 14 20 24 27 31 33 31 35 36 35 35 36 38 40 40 40
27 27 29 30 30 30 27 24 24 25 27 27 27 25 24 25 20 24 16 13 15 18 21 23 26 27 29 32 35 34 33 35 35 37 38 38 38 39
24 27 28 26 25 26 24 23 23 26 28 29 31 29 23 26 24 21 25 20 19 22 28 28 27 30 33 33 32 32 33 33 34 37 38 39 40 40
22 22 19 15 15 17 19 22 25 28 26 26 23 20 20 24 25 24 26 26 27 29 29 30 30 32 32 33 34 35 36 38 40 41 42 41 41 41
15 14 12 13 12 14 15 16 16 17 19 21 24 27 25 25 27 25 24 24 25 27 29 31 33 34 35 36 36 37 39 40 42 42 42 41 39 35
5 7 9 11 12 13 13 17 20 20 20 21 23 25 26 28 28 28 29 29 31 32 34 35 36 36 38 37 37 37 36 36 34 30 26 23 23 24
11 13 15 16 17 18 19 20 21 23 24 26 28 29 30 30 31 31 31 31 31 32 31 28 32 27 26 24 21 18 17 18 18 19 20 20 21 21
15 17 18 19 19 20 22 23 25 26 27 29 29 30 30 30 30 28 28 26 23 22 18 18 18 17 16 15 15 16 17 18 20 21 22 22 23 23
18 20 21 22 22 23 25 26 28 29 30 30 31 31 30 29 27 26 23 20 19 18 16 15 14 15 15 15 16 17 19 22 23 25 26 26 27 27
21 23 24 25 26 26 27 28 29 30 31 31 31 31 29 27 24 22 22 20 20 18 16 16 17 18 18 17 18 20 23 26 28 29 30 30 30 30
23 25 26 26 27 27 27 28 29 30 31 31 30 28 26 24 23 22 22 21 20 21 21 20 19 21 22 21 22 24 26 29 31 32 32 31 31 32
25 26 27 27 27 27 28 29 30 30 29 28 26 25 24 23 24 24 23 22 21 22 24 25 24 25 27 24 23 23 28 30 32 32 33 33 33 33
26 26 26 27 27 27 28 29 29 28 28 27 26 25 25 25 25 25 25 24 24 25 25 27 28 29 29 27 25 23 28 28 31 32 34 34 33 34
27 27 27 27 27 28 28 28 28 27 26 25 25 25 25 26 26 27 27 27 25 27 29 29 30 31 32 31 30 23 26 29 27 31 35 36 35 35
27 28 28 28 28 28 28 27 26 25 24 24 25 26 26 26 27 29 29 29 28 28 28 32 33 33 34 34 33 29 28 28 29 30 34 37 35 34
29 29 29 29 28 28 27 27 26 25 24 24 25 26 27 28 29 29 31 31 30 30 30 31 33 35 36 34 35 34 31 30 30 32 33 37 35 31
30 30 30 30 29 28 27 27 26 27 26 26 27 28 29 29 30 29 31 33 32 32 31 31 32 36 38 38 33 33 33 31 34 33 34 36 38 31
30 31 31 31 30 29 28 27 27 27 27 28 29 29 30 30 29 30 31 33 33 33 31 31 32 35 37 39 39 30 29 33 33 35 34 36 37 34
32 32 33 32 30 29 28 27 27 28 29 29 29 29 29 29 29 29 30 31 33 33 32 30 32 34 35 36 36 32 28 29 32 34 35 38 38 38
32 34 36 32 30 29 28 28 29 30 30 30 29 28 29 30 29 29 29 30 30 32 32 31 32 34 34 36 36 35 32 29 31 34 37 39 42 44
34 35 34 32 31 30 29 29 30 30 31 30 29 28 29 28 29 30 30 30 30 30 31 31 31 32 32 34 35 35 34 33 35 36 36 37 40 43

GFSNE_700_spd_066.txt.gz
Wind_Speed
31 31 31 31 30 30 31 35 37 39 39 33 31 26 27 30 32 32 29 30 30 23 22 28 29 30 32 31 26 25 24 25 27 27 29 31 33 34
27 27 28 29 29 31 33 32 32 34 35 31 28 25 28 28 27 26 25 25 26 18 15 20 25 28 29 26 26 26 24 25 27 27 28 28 28 30
25 26 28 29 27 30 31 30 31 30 27 25 24 25 26 26 25 22 25 22 26 10 11 12 15 20 22 24 28 29 28 28 29 31 32 32 32 34
25 26 27 26 27 28 27 26 26 23 23 23 25 27 28 28 23 22 21 20 16 19 14 15 18 18 20 26 27 27 28 30 31 34 32 32 33 34
23 23 21 24 25 20 21 21 19 20 22 24 24 24 21 19 19 21 21 24 18 19 21 22 22 23 25 25 27 30 30 32 32 33 33 33 33 34
20 19 20 19 17 18 16 13 15 17 17 16 18 19 20 19 18 18 18 20 21 19 21 21 25 27 27 29 29 30 32 33 35 35 35 36 36 36
11 10 9 9 10 12 13 13 14 19 19 17 19 22 23 24 24 23 23 23 24 25 25 26 27 28 31 32 33 35 36 36 38 39 39 39 38 38
9 10 11 13 15 16 18 18 19 21 22 22 23 25 25 26 27 27 27 28 29 28 28 30 30 31 32 33 33 34 35 36 36 35 33 31 27 24
12 14 16 17 18 19 21 22 23 24 25 25 26 27 28 28 27 28 28 28 28 28 27 27 30 30 29 29 28 28 28 27 23 20 18 17 18 18
15 17 19 20 22 23 24 25 25 26 27 28 28 28 28 28 29 28 27 25 23 23 21 20 25 24 24 24 23 22 21 19 19 19 20 20 20 21
18 20 21 22 23 23 26 26 27 27 27 27 28 29 29 28 27 27 25 22 21 20 20 19 20 20 20 21 21 21 21 22 23 23 24 24 24 24
19 21 22 23 24 24 25 25 26 27 28 29 29 29 29 27 25 23 22 22 22 21 20 20 21 21 21 21 21 21 23 25 26 28 28 28 27 26
22 23 24 25 25 25 24 25 26 27 29 29 29 29 27 26 25 24 23 23 24 24 24 22 21 23 24 22 22 23 25 27 29 30 31 30 29 29
22 23 24 25 25 25 25 25 26 27 28 28 28 28 26 25 25 25 25 25 24 25 27 27 25 25 26 25 24 24 28 30 32 31 33 33 31 30
23 24 25 26 26 26 25 25 26 27 27 27 27 26 25 25 25 25 25 25 25 27 27 28 29 28 28 28 28 24 27 28 32 33 35 36 35 33
24 26 28 27 26 26 26 26 27 27 28 28 27 27 26 25 25 26 25 26 25 27 29 29 30 30 30 30 30 26 26 30 28 30 33 34 35 34
25 29 29 28 28 28 28 28 28 28 28 28 28 27 26 26 27 27 27 27 26 26 26 32 34 33 32 32 31 30 28 27 29 31 33 33 33 33
27 31 31 29 28 28 28 29 30 29 29 28 28 27 28 28 28 28 29 29 28 27 27 29 33 36 36 32 33 33 31 31 29 32 34 35 34 30
28 32 31 29 29 30 31 30 30 30 29 28 28 29 29 28 28 27 29 29 28 28 26 29 31 35 37 35 30 32 33 32 33 33 34 35 36 31
30 33 32 30 31 32 31 29 29 29 29 29 29 29 29 29 27 27 28 28 28 27 26 27 29 33 35 37 35 27 30 32 31 32 31 33 34 33
32 33 33 32 32 32 31 29 28 28 29 29 30 30 30 31 28 28 27 28 29 29 27 26 29 32 34 36 36 30 28 30 32 33 32 33 33 33
32 33 35 34 33 31 28 28 28 29 30 31 30 30 31 30 29 29 29 28 28 30 29 28 28 30 32 34 35 34 29 28 30 32 33 35 37 38
33 33 33 33 32 31 29 28 28 28 30 32 31 31 32 31 31 31 30 31 31 30 30 30 30 31 32 33 36 34 33 32 32 33 31 34 37 40

GFSNE_700_spd_069.txt.gz
Wind_Speed
27 26 26 25 26 26 26 28 31 35 34 30 26 20 19 17 19 22 23 26 27 25 25 28 27 26 33 37 39 42 38 37 37 34 28 30 30 32
24 23 24 24 24 25 27 28 30 32 31 28 23 18 16 18 20 22 22 22 23 23 23 22 25 34 35 36 34 31 30 30 26 26 23 21 22 23
23 23 23 23 24 26 27 27 29 27 26 24 19 17 18 20 21 20 20 19 19 22 14 16 13 15 27 29 32 32 29 27 24 24 23 24 25 26
21 21 22 23 24 22 24 25 22 21 18 18 19 18 18 18 19 19 18 17 16 18 21 20 14 13 15 16 17 20 21 25 26 24 25 26 28 29
18 19 19 19 18 19 18 19 16 13 16 16 15 15 16 15 16 18 17 16 16 16 17 18 19 18 20 22 24 26 31 32 34 34 29 29 29 30
15 15 13 12 11 11 10 12 12 14 16 18 16 16 18 19 19 20 20 19 20 20 20 20 20 21 21 22 24 26 27 27 27 28 30 31 31 32
4 3 4 6 9 10 12 14 14 15 17 18 18 19 20 21 22 22 23 23 23 23 23 23 24 25 25 26 27 29 30 31 32 33 34 35 34 35
5 7 9 10 12 13 15 16 17 19 19 21 21 22 23 23 24 24 24 25 26 25 25 26 26 27 27 27 28 29 31 32 33 33 34 34 33 33
9 11 13 15 16 18 18 19 19 20 21 22 22 23 23 24 24 25 25 26 26 25 24 24 23 24 25 24 25 25 25 26 26 26 25 24 22 21
12 14 16 17 19 20 20 21 21 21 21 21 22 23 24 24 25 26 26 25 25 23 20 19 22 23 23 24 25 25 24 23 22 20 19 19 19 19
14 15 16 17 18 21 22 22 22 21 21 21 23 24 24 25 25 26 24 23 22 21 20 19 20 22 22 22 23 23 25 25 24 23 23 23 24 23
14 15 16 18 19 20 21 22 22 21 21 22 23 23 24 25 25 25 24 23 22 23 22 20 20 21 22 22 23 24 26 27 27 27 28 28 28 28
15 16 17 18 20 20 21 21 21 22 22 22 23 23 24 25 25 25 24 23 23 23 22 21 20 22 23 23 23 26 27 29 29 30 31 33 33 32
16 17 17 19 21 22 22 22 22 22 22 23 23 24 25 25 25 25 24 23 23 24 25 24 22 23 24 24 22 25 28 29 31 31 34 35 35 34
17 18 19 22 25 25 24 23 24 24 24 24 25 26 26 27 26 25 25 25 25 27 27 27 27 26 25 25 23 23 26 27 31 32 35 36 35 35
19 21 22 24 26 25 24 23 24 24 25 25 26 26 27 26 26 27 27 27 26 28 30 30 30 28 26 26 26 22 27 27 27 31 35 34 35 36
21 23 25 26 28 26 24 25 25 26 26 27 27 27 27 26 27 27 28 28 27 26 28 33 35 31 28 27 26 26 26 26 29 29 33 33 32 32
22 24 26 28 29 28 26 27 28 27 27 26 26 25 25 26 26 27 28 28 26 26 25 29 32 34 33 28 29 26 25 27 30 30 31 33 31 30
24 26 27 29 29 28 27 27 29 28 27 25 25 25 26 26 26 27 28 28 27 26 26 27 29 32 32 30 25 28 25 27 30 29 31 32 31 29
26 28 29 30 30 30 29 28 28 27 26 26 26 26 27 27 27 28 29 29 28 26 24 26 29 31 32 32 29 23 25 27 29 29 28 30 30 29
29 29 30 31 32 30 28 27 27 27 27 27 27 27 29 28 28 29 28 29 29 27 24 25 29 30 30 30 28 25 24 25 28 30 29 31 29 29
31 30 31 32 31 29 28 27 27 28 28 28 27 28 29 30 30 29 29 28 28 29 28 27 28 29 30 30 30 30 28 28 28 29 30 32 33 32
31 30 31 32 31 30 29 28 29 28 29 29 28 29 30 31 32 31 30 29 29 28 28 26 27 28 29 31 34 33 32 31 31 31 28 31 35 36

GFSNE_700_spd_072.txt.gz
Wind_Speed
28 28 27 26 25 26 26 25 26 28 25 26 26 22 20 18 16 16 19 20 22 22 23 20 21 25 27 28 28 32 35 36 35 29 30 33 36 34
26 25 25 24 23 24 23 24 25 25 26 26 23 19 15 14 14 17 19 20 21 20 18 19 18 20 17 25 30 28 32 34 37 43 49 47 34 31
25 25 23 22 22 22 23 23 22 23 22 22 18 16 14 14 14 17 19 19 18 20 21 19 19 18 16 14 32 40 41 40 42 33 33 32 30 28
23 22 21 20 20 20 20 19 19 17 17 14 14 13 11 13 14 14 16 17 18 19 20 21 20 20 18 16 16 19 24 26 27 26 24 25 26 27
18 17 17 18 17 17 15 13 12 12 13 11 14 12 12 12 15 17 18 19 20 21 21 21 22 21 19 20 22 22 22 23 24 27 28 29 32 35
14 14 13 11 9 7 7 9 11 12 13 14 15 15 15 16 18 20 21 22 22 23 24 23 24 23 23 23 23 24 27 30 33 34 33 31 30 30
7 5 4 5 6 9 11 13 14 15 16 17 18 19 19 20 21 22 23 24 24 25 26 26 26 27 26 26 26 26 28 29 30 30 30 30 31 32
4 5 7 9 10 12 13 15 17 19 20 21 21 22 22 22 22 23 24 25 25 25 27 28 27 28 28 28 27 26 27 28 30 30 31 32 33 33
5 7 9 11 13 14 15 16 17 18 20 21 22 22 22 22 22 23 23 24 25 24 25 26 25 26 26 27 26 26 26 26 26 27 27 28 29 30
8 10 12 13 15 16 17 18 19 19 19 20 20 21 21 21 22 22 22 23 23 23 23 23 24 24 24 25 26 26 26 26 25 25 25 25 25 25
9 11 12 13 15 16 17 18 19 19 19 19 20 20 21 21 22 22 22 22 23 23 23 23 24 25 24 24 24 25 26 26 27 26 25 24 24 24
11 11 12 13 15 17 18 20 20 20 20 19 19 20 20 20 21 22 23 23 24 25 24 23 25 26 26 25 24 24 26 26 28 29 29 29 28 28
12 13 13 14 16 18 20 22 22 21 21 20 20 20 21 22 22 23 23 24 25 27 26 25 25 27 27 26 25 27 27 29 30 31 31 32 32 32
15 15 16 17 19 21 22 23 22 22 22 21 21 22 23 23 24 24 25 25 26 27 28 27 27 27 28 26 25 26 29 30 32 32 32 33 34 36
16 18 18 19 21 22 24 25 24 23 23 23 23 24 24 25 25 25 25 25 26 28 29 29 29 29 29 27 26 25 28 30 33 32 33 34 35 35
19 19 20 21 22 24 25 25 25 24 25 25 25 25 25 25 25 25 25 26 26 28 30 30 30 29 29 28 26 24 28 30 30 32 35 35 34 35
21 21 22 23 24 25 26 26 26 25 26 25 26 26 26 26 26 26 26 27 27 29 30 31 33 30 28 26 25 25 27 27 29 31 35 35 33 32
23 23 24 26 26 27 28 28 28 27 27 26 26 26 26 26 27 27 28 28 28 28 29 30 31 32 31 26 25 24 25 24 26 30 31 32 30 29
24 25 26 27 28 28 28 30 31 29 28 26 26 26 26 26 27 28 29 29 28 28 29 30 31 33 30 26 26 23 23 24 26 28 29 31 31 27
26 28 28 29 29 29 29 31 30 29 28 27 27 27 27 27 28 28 29 29 29 28 27 29 31 33 32 30 27 22 25 23 25 26 29 30 30 27
29 29 30 30 31 30 30 31 30 29 28 28 28 28 29 28 28 29 29 30 30 29 27 27 30 32 31 30 27 24 24 25 27 29 31 34 31 29
31 30 30 32 32 31 31 32 30 29 30 30 30 30 30 30 30 29 30 30 30 30 29 28 29 29 28 29 29 29 28 28 29 31 31 34 35 34
32 31 31 32 32 31 31 31 30 30 31 31 30 30 31 31 30 30 30 31 30 29 29 27 27 28 29 30 32 33 32 31 30 29 26 30 32 33

GFSNE_700_spd_075.txt.gz
Wind_Speed
30 29 28 27 26 26 25 25 25 26 25 25 23 24 24 23 22 18 16 16 17 19 19 17 17 18 20 20 24 28 31 31 41 30 30 30 29 27
28 27 27 26 25 24 23 23 23 24 25 22 22 21 21 18 17 15 16 16 17 18 17 16 17 20 18 22 21 14 20 23 26 32 33 31 34 36
26 26 26 25 24 23 22 21 22 22 21 18 17 15 16 15 15 15 16 15 15 15 16 16 17 18 19 19 19 15 19 25 32 37 35 35 37 40
25 25 24 23 22 20 20 19 18 17 16 14 12 11 12 11 12 12 13 16 17 19 18 19 19 19 20 19 18 18 19 26 34 38 42 38 30 29
24 22 21 19 18 18 17 14 12 9 10 9 11 14 14 14 15 17 19 19 20 22 23 22 22 22 22 22 22 20 20 22 24 26 27 28 28 28
20 18 17 15 14 11 8 8 10 11 13 13 14 16 17 18 19 21 22 23 24 25 25 25 26 25 25 25 24 25 25 25 24 26 28 30 31 33
15 13 9 7 7 8 9 11 13 15 17 18 19 20 20 21 22 22 24 24 24 25 25 25 26 26 26 27 26 25 25 27 29 30 30 32 33 32
11 9 9 8 9 10 12 14 16 17 18 20 21 22 22 22 22 22 22 23 24 22 25 26 24 26 26 27 27 27 25 25 27 29 31 32 31 31
11 10 9 10 10 11 13 14 16 18 19 21 22 22 22 21 21 21 21 22 22 23 23 24 23 24 24 24 25 25 25 25 25 25 26 28 29 30
11 9 10 10 11 12 13 14 15 17 19 20 21 21 21 21 21 21 21 21 21 21 21 22 23 24 24 25 25 26 27 28 28 27 26 25 26 26
10 10 10 11 11 12 13 14 16 18 20 21 21 21 22 22 22 21 21 21 21 21 22 23 23 24 25 25 26 27 28 28 28 29 28 28 27 25
11 11 11 11 12 14 15 17 19 21 22 22 21 22 22 22 22 23 23 23 23 23 24 24 25 25 25 25 25 26 28 29 30 30 30 30 30 29
12 12 12 13 14 16 18 20 21 22 22 22 22 23 23 22 23 24 25 25 26 26 25 26 26 27 27 26 25 27 27 28 30 31 32 32 32 33
14 15 15 15 16 17 19 21 22 23 22 22 23 23 24 23 24 25 26 27 27 28 28 27 27 28 28 28 27 27 27 29 31 31 32 32 33 33
17 17 17 18 19 19 20 21 22 23 23 23 23 24 24 25 25 26 27 27 28 28 28 29 30 30 30 29 28 26 28 29 31 33 34 33 31 31
19 19 19 21 22 22 22 23 24 25 24 24 24 24 25 25 26 26 27 27 27 28 28 30 30 30 30 30 30 26 28 29 29 32 34 32 31 31
21 21 22 23 24 24 25 25 26 26 26 26 26 25 25 25 25 26 27 27 28 29 29 29 30 31 31 30 27 27 27 28 30 30 31 29 29 31
24 24 24 25 25 26 27 27 27 28 27 27 27 26 26 26 26 28 28 28 28 29 29 30 31 31 32 28 28 26 27 29 29 29 29 29 26 28
26 27 27 27 28 29 29 29 30 30 29 29 27 26 26 27 28 29 29 29 29 29 29 30 31 32 33 30 27 26 26 28 28 26 28 28 27 25
29 30 31 31 30 31 31 31 31 32 31 30 28 27 27 28 29 30 30 30 30 30 30 31 31 33 33 32 28 23 28 26 27 26 27 30 30 28
37 34 32 30 30 32 33 32 33 33 32 31 29 28 28 29 30 30 30 30 30 30 30 30 32 33 33 31 28 23 23 27 28 29 31 33 33 32
33 32 31 31 31 33 34 34 34 33 32 32 30 29 30 31 30 30 30 30 30 31 31 30 31 31 31 31 29 27 26 28 30 32 33 33 34 32
31 32 33 34 33 35 36 34 33 32 31 31 30 30 31 31 31 30 30 30 31 31 32 31 30 30 30 31 31 30 30 30 31 31 28 28 32 34

GFSNE_700_spd_078.txt.gz
Wind_Speed
31 31 30 29 28 27 26 24 24 26 24 22 21 22 22 22 24 23 20 15 14 15 14 14 15 15 16 16 15 17 19 24 25 33 31 26 19 26
30 30 29 28 26 25 24 23 23 23 23 22 21 20 19 18 18 18 15 14 15 15 14 14 14 16 15 15 12 12 13 8 16 14 30 23 25 28
30 29 27 26 25 24 23 22 21 21 21 20 19 17 15 13 13 14 13 14 14 13 13 15 15 16 17 18 18 15 12 10 11 24 23 39 34 32
29 27 26 25 23 22 20 19 19 19 18 16 16 12 13 13 13 13 13 13 16 16 16 17 19 19 19 19 20 19 16 15 19 23 29 34 38 39
26 24 23 21 19 17 17 16 16 13 11 10 11 12 14 15 15 16 17 18 19 20 20 21 21 21 21 21 21 21 20 19 20 24 29 34 39 40
24 21 19 16 16 15 13 11 9 10 12 13 14 15 16 18 19 20 20 21 22 22 22 22 22 22 22 21 20 21 22 21 22 22 24 27 30 31
19 16 15 12 10 8 8 9 11 12 14 16 16 16 17 18 20 20 20 22 20 21 22 21 22 22 21 21 20 21 21 21 22 24 26 26 25 26
15 12 10 10 9 10 10 11 13 14 15 16 17 18 17 18 19 20 20 21 20 20 22 21 20 21 20 20 20 21 20 20 21 22 24 26 28 29
13 12 11 11 10 11 12 13 13 14 15 16 17 17 18 19 18 21 20 20 19 19 19 20 20 19 19 20 21 21 22 22 22 22 22 24 25 27
13 12 12 12 11 12 12 12 13 14 14 15 17 18 19 20 19 21 20 20 19 20 20 20 21 21 21 20 22 23 24 24 24 24 24 24 24 25
13 12 12 13 12 12 12 13 13 14 16 17 18 19 19 19 20 20 21 20 21 20 22 22 21 23 23 23 23 24 24 25 26 26 26 25 26 25
13 12 12 13 13 13 14 15 14 16 17 18 19 19 19 20 20 21 22 22 22 22 23 22 24 24 24 25 26 25 26 27 27 28 28 28 28 27
14 14 14 14 14 16 17 16 16 17 18 18 18 18 18 20 21 21 21 23 23 24 23 24 24 24 24 24 26 26 27 29 30 30 30 30 30 30
15 15 16 16 17 18 18 18 18 18 18 19 20 20 20 20 21 21 22 22 23 24 25 24 24 25 25 25 25 27 29 31 32 32 31 32 32 31
17 18 18 18 19 19 19 20 20 20 21 21 22 22 22 23 22 23 23 23 23 24 24 25 26 26 27 27 26 25 27 29 31 32 33 33 31 30
20 20 20 21 21 20 21 22 22 22 23 23 23 23 24 24 24 23 23 22 23 25 26 27 28 28 28 28 28 27 29 28 28 31 32 30 29 28
22 22 22 23 23 23 23 24 24 24 24 25 25 25 25 24 25 24 23 23 24 25 26 27 28 30 29 28 27 28 28 28 30 31 32 29 26 26
24 23 24 26 26 25 25 25 25 26 27 27 27 26 26 25 25 25 24 25 26 27 27 28 28 28 29 26 29 27 27 29 31 32 31 29 23 24
25 28 28 29 28 27 29 30 27 29 29 29 29 28 27 26 25 25 25 26 27 27 27 29 29 31 31 28 24 28 27 29 31 29 29 27 23 22
28 28 29 31 34 37 33 30 30 30 31 31 31 31 29 27 26 26 27 27 28 27 27 29 30 32 32 31 28 23 29 30 29 26 25 26 26 27
34 37 38 38 38 37 35 31 30 31 32 33 33 32 31 29 27 27 28 29 29 29 28 28 30 32 33 32 29 24 23 28 30 29 28 30 29 30
31 32 32 33 33 32 32 30 32 34 34 34 33 32 30 29 27 28 29 29 30 30 30 29 30 31 32 33 31 28 23 25 28 30 31 34 33 31
31 32 34 34 34 34 34 35 36 35 33 32 32 30 29 27 28 28 29 29 30 30 31 31 31 31 31 33 33 29 26 26 28 29 26 30 32 32

GFSNE_700_spd_081.txt.gz
Wind_Speed
32 33 32 31 30 29 29 27 27 26 24 22 21 21 22 23 23 22 21 19 15 12 12 13 15 13 11 10 10 14 15 18 18 18 21 20 25 24
32 32 32 31 30 28 27 26 25 24 24 22 21 21 21 20 19 18 18 16 13 13 14 13 12 12 11 11 10 10 12 12 11 10 15 16 20 24
32 31 30 29 28 27 26 25 23 23 22 20 20 19 18 15 13 13 13 12 13 12 12 13 13 14 14 15 14 13 11 11 10 11 18 18 25 26
32 30 30 28 27 25 25 24 22 20 19 19 16 15 13 13 13 14 13 13 13 15 15 15 16 17 17 17 17 16 15 14 13 13 19 27 32 28
31 29 28 27 25 23 22 21 18 18 17 14 12 12 12 12 14 16 15 16 17 17 18 18 18 18 18 17 17 17 17 16 16 18 19 21 24 33
30 28 25 23 21 20 19 18 17 15 11 11 12 13 15 15 17 18 16 17 18 18 18 18 17 17 17 17 17 17 17 17 18 18 21 24 28 31
26 25 22 19 17 17 15 13 12 11 11 13 14 16 16 17 17 18 18 17 18 17 17 17 17 16 16 16 16 16 17 17 17 18 19 20 22 26
20 18 16 14 12 12 11 10 12 12 13 14 14 15 16 16 17 16 16 16 17 17 16 16 17 15 15 15 15 16 16 17 18 18 18 20 21 22
16 15 14 14 13 13 12 11 14 12 14 14 13 13 14 15 16 16 16 16 16 16 16 16 17 17 16 17 16 17 18 18 19 20 20 21 22 23
15 14 15 16 13 13 13 12 12 12 13 13 14 15 16 17 17 17 16 15 15 15 16 17 18 18 18 19 19 19 20 20 20 21 22 23 23 24
14 13 14 12 13 12 12 12 11 12 13 14 15 16 17 17 17 17 16 16 16 17 17 18 19 19 19 21 22 22 23 23 23 23 24 24 25 26
14 14 13 13 13 13 12 12 13 14 15 15 16 16 17 17 16 16 17 17 17 18 19 19 20 20 20 23 23 23 23 24 25 25 26 27 28 28
15 15 14 13 14 14 14 14 15 15 15 15 16 16 17 17 16 16 16 17 18 18 19 20 21 21 21 21 23 22 25 26 27 27 28 29 30 31
16 15 15 15 15 16 16 17 17 17 17 17 17 18 18 18 18 18 17 18 19 20 20 20 20 19 20 20 22 24 27 27 27 29 29 29 30 31
16 17 17 17 18 18 19 19 19 19 19 19 19 20 20 19 20 20 19 19 20 20 19 21 21 22 21 21 20 23 25 29 30 30 29 29 31 31
18 18 19 20 20 21 21 21 22 22 22 21 20 20 22 22 21 21 20 20 22 22 21 23 25 25 24 23 22 23 26 26 29 30 28 29 31 30
21 20 21 22 22 22 22 23 23 24 25 23 23 23 23 24 24 23 23 22 22 22 24 25 27 26 25 24 23 25 26 28 29 28 29 27 27 28
22 22 23 23 23 23 23 26 29 28 29 30 26 23 26 25 25 26 25 24 23 23 24 27 28 27 26 24 26 25 27 29 31 30 30 28 23 25
23 23 27 32 35 34 33 31 31 37 35 31 27 26 28 28 27 28 27 26 25 25 26 28 29 29 27 24 23 27 27 31 32 30 30 30 25 20
27 26 27 29 31 31 31 37 39 38 31 30 30 29 30 30 29 29 29 27 26 26 26 29 29 30 29 27 23 22 29 30 32 29 28 29 27 24
30 32 32 33 36 38 38 36 35 34 31 29 31 32 32 31 30 30 29 29 28 27 26 27 31 31 30 30 26 22 24 29 32 31 29 29 27 25
26 27 29 29 30 31 32 33 33 31 30 31 33 33 33 33 31 30 29 29 28 28 27 27 28 29 30 31 29 26 24 27 30 30 30 32 31 28
24 25 27 27 28 30 32 33 34 34 35 34 34 32 32 31 31 29 28 28 28 29 29 28 28 29 29 31 31 27 27 27 27 27 26 30 32 34

GFSNE_700_spd_084.txt.gz
Wind_Speed
36 34 33 33 33 32 30 29 30 30 30 29 27 23 22 22 22 22 21 19 16 13 10 11 12 12 11 10 9 10 9 10 14 14 14 17 17 16
35 34 33 33 32 31 31 29 28 29 29 26 24 21 20 21 20 19 16 13 11 10 10 11 10 9 9 10 9 10 10 11 12 11 10 16 14 13
35 34 33 33 32 32 31 29 28 27 27 25 22 21 20 20 17 14 12 11 10 10 8 9 10 11 11 11 13 12 11 11 10 10 9 13 20 21
36 35 33 33 31 31 30 29 26 26 25 23 21 20 20 17 13 14 13 13 12 11 12 13 13 13 14 14 15 15 14 13 12 11 14 19 22 26
35 34 33 32 30 28 28 26 25 23 22 21 20 19 15 12 13 14 15 16 16 15 15 15 15 15 15 14 15 14 14 15 14 13 14 18 20 29
34 34 31 29 27 26 24 23 22 20 19 18 16 15 15 15 16 17 18 17 17 15 16 14 14 14 14 13 14 14 14 15 15 15 16 18 25 28
30 29 29 27 23 22 20 19 19 17 15 14 14 15 16 17 17 17 18 17 17 16 15 14 14 14 14 12 12 13 14 14 15 15 15 17 20 22
28 26 23 20 19 17 15 15 13 13 14 15 15 15 16 16 15 17 16 17 18 16 15 15 14 14 13 12 12 12 14 13 13 14 15 17 18 19
24 20 19 19 16 14 14 13 14 12 13 14 14 15 13 13 15 16 17 18 18 17 16 14 14 14 13 13 14 14 15 15 15 16 17 18 19 20
21 18 16 15 15 13 11 11 13 13 12 13 13 13 13 15 17 18 17 17 18 17 17 16 15 15 16 16 17 17 17 18 19 19 19 20 21 22
16 14 14 13 11 11 15 14 12 12 13 12 12 14 14 16 17 16 16 17 18 17 18 17 17 17 17 18 19 20 20 21 21 21 21 21 23 24
14 13 13 10 14 15 15 14 13 13 13 13 14 15 15 15 15 15 16 17 17 18 18 17 17 18 19 19 20 22 22 22 21 22 23 24 24 24
14 14 15 13 16 15 15 15 14 14 14 15 16 16 16 16 16 16 16 16 16 17 17 18 19 19 20 21 21 23 24 24 24 24 24 24 25 25
16 16 18 19 17 16 16 15 16 17 17 17 18 18 18 19 18 17 18 18 18 18 18 19 19 19 18 21 23 26 27 26 25 25 25 25 26 27
19 19 18 18 18 18 18 18 18 18 19 20 20 20 20 21 19 17 17 20 20 20 20 20 20 20 19 22 23 27 28 28 27 27 27 27 28 28
20 20 19 19 19 20 20 20 20 21 21 22 22 22 23 24 25 22 19 21 22 21 21 22 22 21 22 24 23 25 27 27 30 29 26 27 27 27
21 20 21 21 21 21 21 22 22 22 21 22 26 27 28 32 32 22 22 22 24 25 24 24 24 25 24 25 24 25 26 28 30 30 29 26 28 29
22 22 23 24 23 24 24 24 23 25 31 36 34 30 32 33 28 25 26 25 25 27 27 27 27 27 26 25 25 24 26 28 31 31 30 27 24 29
23 24 25 26 27 27 28 30 31 31 33 34 35 36 34 31 30 28 28 28 28 28 28 29 29 29 28 24 25 26 27 32 32 31 32 31 25 23
26 27 26 27 29 30 31 31 32 33 32 35 40 34 29 31 30 30 31 31 30 29 29 30 31 30 28 27 24 23 30 32 34 32 31 32 29 26
33 35 38 36 33 32 34 36 37 38 37 35 33 31 32 32 30 31 33 33 32 30 29 30 32 30 30 30 25 23 27 32 34 33 31 31 30 25
22 22 24 27 30 30 31 33 32 32 32 31 31 31 33 33 32 33 34 33 32 31 28 29 31 31 31 31 28 26 26 29 33 33 32 32 32 27
21 22 22 23 25 26 29 31 33 33 33 32 32 32 32 32 33 33 32 31 30 29 28 28 29 31 31 32 32 28 27 28 30 30 29 34 34 30

GFSNE_700_spd_087.txt.gz
Wind_Speed
35 33 33 34 34 34 34 33 33 33 34 33 30 27 28 25 23 22 20 18 17 16 14 12 10 10 11 10 10 10 10 8 7 9 11 13 15 17
34 34 33 34 34 34 33 33 32 33 34 32 29 28 26 23 20 22 18 16 13 10 10 11 11 10 10 9 9 10 9 8 9 10 11 12 16 19
37 37 34 34 33 33 33 33 32 32 32 32 29 27 24 22 21 20 17 14 12 10 9 10 9 10 11 11 11 12 12 11 11 12 11 12 19 21
36 36 35 34 33 33 32 32 31 30 30 30 27 25 22 20 19 18 15 14 13 12 12 12 13 15 15 14 14 15 14 12 11 12 13 15 22 19
33 34 34 33 33 33 31 30 30 29 27 27 25 23 20 18 15 13 14 15 15 15 16 15 16 17 16 16 15 15 15 13 12 13 15 17 20 24
32 32 32 31 31 30 29 27 26 25 24 23 20 19 18 16 15 15 15 16 16 17 17 17 16 16 16 15 15 14 15 14 14 13 14 16 19 23
31 31 31 30 29 27 26 25 22 20 18 18 18 16 15 14 16 16 15 16 17 17 18 16 16 16 16 15 14 13 14 15 14 14 14 17 19 21
30 30 28 28 26 24 20 21 19 18 14 14 12 13 14 15 16 16 16 16 15 16 16 16 16 16 16 15 14 13 13 13 13 14 14 15 17 19
30 29 26 23 21 18 15 11 12 10 9 11 11 13 14 14 14 15 15 16 17 17 17 16 16 16 16 15 15 14 14 14 14 15 15 16 18 20
27 24 22 18 16 13 11 9 9 9 10 12 11 13 14 14 14 16 17 18 18 18 17 16 16 16 16 17 16 16 16 16 17 17 18 19 20 21
23 19 16 14 12 11 10 8 8 11 15 14 12 12 13 15 16 17 17 17 17 17 17 17 17 17 18 18 19 18 18 18 18 19 21 21 22 23
20 17 14 13 11 9 8 9 12 16 17 14 13 14 14 16 17 16 16 16 16 17 17 17 18 18 19 19 20 20 19 20 21 21 22 23 23 24
18 15 12 12 13 10 13 17 16 14 15 16 15 15 16 17 18 18 17 17 17 17 17 17 18 19 20 20 20 21 20 21 22 23 24 24 24 24
17 16 15 15 17 17 19 18 17 16 15 17 18 18 18 20 20 20 19 18 17 17 17 18 19 20 20 21 21 23 23 24 25 25 25 25 25 25
19 20 20 19 21 21 21 19 19 18 19 20 20 20 20 20 21 21 21 22 25 24 19 20 21 20 21 23 24 26 27 26 27 27 25 26 26 27
21 22 22 21 21 21 21 21 21 20 20 21 21 22 22 22 23 26 33 29 28 24 19 21 21 22 22 24 24 28 30 29 30 28 27 28 28 27
21 21 22 22 23 23 23 23 23 23 23 23 23 24 25 29 35 36 28 28 27 23 22 23 23 24 24 25 25 28 30 30 31 30 29 28 29 29
21 21 23 24 25 26 25 25 25 25 25 23 25 30 32 32 30 29 31 30 29 27 26 26 26 27 27 27 27 28 30 31 32 32 31 28 25 30
21 21 23 26 27 28 27 27 27 28 29 30 30 32 33 34 33 30 30 29 29 30 30 29 29 30 29 27 29 27 29 32 33 33 33 32 25 26
24 25 31 31 30 30 30 29 28 29 30 30 33 34 36 37 35 32 31 30 30 31 32 33 33 33 31 30 27 26 29 33 34 33 34 35 31 27
27 30 28 31 34 36 36 36 38 33 34 39 38 35 34 33 32 34 32 31 31 32 33 34 36 34 32 31 27 26 28 32 34 34 34 34 32 28
21 21 22 23 25 27 27 27 29 31 30 30 31 32 31 30 32 33 32 33 33 34 33 32 33 35 32 30 28 28 26 29 34 35 35 35 34 30
20 20 20 22 23 24 25 26 28 29 31 33 34 35 35 33 34 34 33 33 33 33 32 31 32 32 30 30 30 28 28 29 32 34 33 37 36 33

GFSNE_700_spd_090.txt.gz
Wind_Speed
44 40 32 31 31 32 32 32 33 34 34 34 32 29 28 28 27 27 24 19 18 18 17 17 14 12 11 11 12 11 10 9 9 10 12 15 15 16
29 31 31 33 33 34 33 32 32 33 35 35 32 30 29 28 27 26 20 18 17 16 14 12 12 13 12 11 12 12 9 9 9 10 13 14 16 15
30 30 31 32 33 33 33 32 32 32 33 33 32 31 28 27 24 21 20 18 17 14 14 11 12 11 11 10 12 13 11 11 12 12 13 14 16 19
28 29 30 31 31 31 32 31 31 32 32 30 29 29 26 23 22 19 20 18 16 14 14 12 12 13 12 13 13 15 14 15 14 14 14 14 16 20
28 29 30 30 30 31 31 31 30 30 30 30 27 25 23 21 19 18 16 15 14 15 14 15 15 15 16 16 17 17 16 16 15 14 15 16 16 19
28 29 29 30 30 31 31 30 30 28 26 27 27 23 19 18 18 17 15 14 14 15 17 16 16 16 15 16 17 17 16 15 15 15 15 16 16 20
28 29 29 30 30 31 30 28 26 24 22 20 21 20 17 15 14 13 14 16 16 16 17 16 16 15 15 16 17 16 16 16 16 15 16 17 19 22
29 29 30 30 29 29 27 24 22 19 17 15 15 14 11 11 12 12 15 15 15 15 16 16 15 15 15 15 15 15 16 15 15 15 15 16 18 19
29 29 29 29 27 25 21 17 14 10 8 7 7 10 10 11 13 13 14 13 14 14 16 16 16 16 16 16 15 15 15 15 15 16 16 16 18 19
29 28 27 25 22 20 16 12 10 8 6 5 5 9 14 12 11 11 12 14 15 15 16 16 16 16 16 16 16 15 15 16 16 17 18 18 19 21
27 25 23 20 18 15 13 12 9 9 6 9 11 16 12 10 11 14 12 15 16 15 15 15 16 16 17 17 17 16 17 17 18 19 19 20 22 23
23 21 19 17 15 13 12 10 7 6 8 11 12 12 13 15 13 13 16 15 15 15 15 15 16 17 17 17 17 17 18 18 19 20 20 21 23 25
22 20 18 15 13 13 13 13 14 13 15 13 16 16 15 15 15 17 16 16 16 18 17 16 16 16 17 17 18 18 19 19 20 20 20 22 24 26
23 21 17 16 15 16 16 16 16 16 16 15 14 14 16 17 17 20 20 19 18 17 19 18 18 17 17 19 19 20 20 20 20 21 22 23 25 26
22 20 18 19 18 20 18 18 19 18 17 17 18 19 21 20 20 21 21 22 21 22 31 27 25 23 20 19 22 23 23 23 23 23 23 24 25 26
22 21 20 22 21 20 20 21 21 20 19 20 21 21 21 21 21 22 21 25 31 31 26 25 23 21 19 21 23 26 26 26 26 26 24 26 26 26
23 22 21 23 23 23 22 22 22 21 21 22 22 22 22 20 21 26 30 31 29 27 25 23 24 23 22 23 24 28 29 28 29 28 26 26 29 28
22 21 21 22 23 23 23 23 23 23 24 24 23 23 22 24 28 29 29 31 27 27 25 25 25 27 26 26 26 27 30 31 31 31 30 27 27 31
21 18 20 22 23 24 24 23 23 25 26 25 25 25 27 30 29 30 32 34 32 29 28 28 28 29 29 29 30 29 31 34 35 34 32 30 26 27
23 20 22 25 28 27 26 24 24 26 26 27 27 27 30 33 33 37 33 30 30 29 28 28 29 31 30 31 31 29 31 34 36 34 33 32 29 26
21 21 26 32 32 35 35 33 32 33 33 33 36 38 33 35 33 30 28 29 29 29 28 28 31 30 31 32 31 29 31 33 34 33 32 33 32 28
18 19 20 22 25 27 27 27 28 27 26 26 26 26 27 28 28 30 29 31 31 30 29 30 32 32 32 32 30 30 28 28 30 31 33 34 34 30
21 21 20 19 20 21 21 22 23 24 26 27 28 29 29 29 31 32 32 33 32 31 31 30 31 32 31 31 29 26 25 25 27 31 31 35 35 32

GFSNE_700_spd_093.txt.gz
Wind_Speed
37 39 40 31 29 28 30 32 33 35 34 32 32 29 27 26 26 28 27 26 24 21 21 20 19 18 16 14 14 13 14 13 12 11 12 14 17 20
41 31 29 29 29 29 30 32 32 33 35 35 32 31 29 26 24 26 26 25 23 20 19 18 16 15 16 15 14 13 14 12 11 9 13 14 16 19
29 31 30 29 28 28 29 30 31 32 33 34 34 32 30 28 26 24 21 24 20 18 18 16 15 15 15 15 12 12 12 12 10 9 12 14 16 18
30 29 29 28 27 27 28 29 30 31 32 32 31 30 29 28 26 22 22 22 19 17 17 15 14 14 13 13 12 13 12 13 12 12 14 15 15 18
27 27 28 28 27 27 28 29 30 31 32 32 30 28 26 24 24 23 21 20 17 15 15 15 15 16 16 16 16 16 15 14 15 15 16 17 16 18
27 27 27 27 27 28 29 30 30 31 30 29 28 26 22 20 20 19 18 16 14 13 14 14 16 17 18 18 17 16 17 15 14 15 17 17 18 19
26 26 27 28 29 29 30 30 30 30 29 27 24 21 18 15 14 15 13 12 13 14 14 15 16 17 17 17 16 16 16 15 15 15 17 17 18 21
27 28 28 29 30 29 29 29 28 26 24 21 19 18 14 10 9 9 11 12 13 14 15 15 15 15 15 16 16 16 15 15 15 15 17 17 18 20
28 29 29 29 29 28 28 26 23 19 16 14 10 8 8 7 6 5 9 13 14 13 14 14 14 16 14 15 17 16 15 15 15 15 15 17 19 20
28 29 28 27 27 27 25 22 18 15 12 9 6 4 6 7 8 9 12 10 10 12 12 13 14 15 15 15 15 15 15 16 16 16 16 16 18 19
28 28 26 25 24 23 20 18 15 14 12 11 8 10 14 9 10 8 8 9 9 11 12 15 14 14 14 15 15 15 16 17 17 18 18 19 20 20
28 26 24 20 19 19 17 16 15 13 12 10 9 10 8 7 8 9 9 13 12 12 13 12 14 14 14 15 15 16 17 18 18 19 19 21 22 23
29 26 24 22 20 18 16 15 15 14 14 13 13 13 11 10 11 12 15 13 13 13 13 12 14 15 15 15 15 16 16 18 19 19 20 21 22 23
29 26 23 23 19 18 17 18 15 15 15 15 16 16 16 13 13 14 14 16 16 18 16 15 15 21 22 21 20 17 17 18 19 20 20 21 22 24
27 24 23 22 20 20 20 20 19 19 18 17 18 18 17 16 16 18 18 18 17 17 18 22 27 26 22 22 24 24 23 20 20 21 22 23 25 26
25 23 23 22 22 23 22 23 22 21 20 20 20 20 19 19 18 18 17 16 18 23 26 26 24 22 22 21 23 22 21 21 22 24 24 26 28 28
23 21 22 23 24 25 25 25 24 23 22 22 21 21 21 20 20 19 17 19 23 25 26 24 22 22 22 23 24 24 24 23 25 26 26 28 29 29
22 22 23 25 24 25 25 25 24 23 23 23 22 21 22 22 22 22 23 24 26 30 31 29 24 23 22 24 24 26 27 28 28 28 29 28 29 31
19 21 22 25 25 23 24 25 24 25 24 23 23 23 24 25 24 25 27 28 29 32 32 27 25 24 23 24 27 27 29 29 30 31 31 30 28 30
18 19 19 24 22 25 27 25 26 25 24 24 24 23 25 26 27 26 31 38 32 30 28 26 24 25 25 24 25 25 28 30 31 32 32 31 28 28
18 17 19 22 26 29 30 32 36 31 29 32 31 29 29 31 33 34 29 26 25 26 26 27 28 26 27 27 26 27 30 30 31 32 31 31 27 26
21 19 17 20 22 24 26 29 28 28 27 25 26 26 25 24 24 24 25 26 26 28 28 29 29 29 28 28 28 27 27 29 31 31 29 28 26 25
23 23 20 20 20 21 22 22 22 22 22 22 23 24 25 25 26 27 27 28 29 30 30 29 30 29 29 28 27 25 25 27 28 27 26 28 27 27

GFSNE_700_spd_096.txt.gz
Wind_Speed
26 30 35 39 40 40 32 32 31 31 32 33 30 29 30 30 30 30 32 31 31 31 30 29 26 22 20 19 19 17 16 16 15 15 14 16 19 22
26 29 30 30 31 32 31 30 30 31 32 31 30 30 30 31 30 29 30 30 32 30 28 28 23 20 18 16 17 16 17 16 15 15 14 14 16 19
32 31 30 32 32 29 28 29 29 30 30 31 31 31 31 31 30 28 26 27 29 29 27 23 21 18 16 13 15 15 16 15 14 14 14 13 14 17
27 29 29 29 29 28 27 28 28 29 31 31 31 32 33 32 31 29 27 26 25 23 22 22 19 19 16 13 13 13 15 13 13 13 12 12 14 16
31 28 27 27 27 27 26 27 28 30 31 31 32 32 32 31 30 27 25 25 23 21 19 19 16 18 15 13 13 15 15 14 14 15 14 13 14 17
29 27 26 27 27 26 27 29 30 31 32 32 32 31 30 28 26 23 21 18 17 16 15 14 15 16 16 16 16 16 17 17 16 17 17 15 16 17
28 27 27 27 27 28 29 30 31 31 31 31 30 28 26 23 21 18 15 14 12 12 11 12 14 16 17 18 18 18 17 16 16 17 17 17 17 19
27 26 27 28 29 29 30 30 29 29 28 27 25 23 21 17 15 12 9 8 9 10 12 14 17 19 17 16 16 16 16 16 17 17 17 19 19 18
26 26 28 29 29 29 29 28 28 26 24 22 20 16 12 10 8 6 5 6 7 9 11 11 13 14 14 14 14 14 14 15 16 17 18 19 19 19
26 27 28 29 30 29 27 26 25 23 20 18 14 12 9 9 10 9 8 7 7 7 7 10 12 11 12 13 13 14 15 16 15 16 17 18 19 20
27 28 29 29 28 27 25 24 22 20 17 15 13 11 9 11 9 9 11 10 12 11 13 14 15 13 14 15 15 16 16 16 16 16 17 18 18 19
30 29 29 28 27 25 23 22 21 19 17 16 16 14 11 11 10 9 11 10 10 12 11 12 15 14 12 14 14 16 16 17 18 18 19 19 20 21
31 31 30 29 26 25 24 24 21 19 17 17 16 15 14 14 14 12 11 13 12 12 14 16 13 15 13 13 16 16 17 18 19 20 21 21 22 23
32 32 31 29 27 26 24 23 21 20 20 19 19 18 17 17 17 17 17 15 16 16 16 16 16 17 18 22 23 22 20 19 20 21 21 21 22 23
32 33 32 29 27 26 25 24 23 24 22 21 20 19 18 19 19 18 17 17 17 17 16 15 18 23 26 27 23 22 24 25 25 23 22 21 22 23
34 34 32 28 26 26 25 25 26 26 27 24 23 20 20 20 21 22 20 20 18 17 17 19 21 22 22 22 21 20 22 22 24 26 26 26 25 26
35 32 28 24 24 26 26 27 29 28 27 26 25 23 22 22 22 21 21 21 21 20 20 22 23 25 25 23 22 22 22 24 25 25 25 27 28 28
25 25 22 23 24 25 27 29 29 28 27 26 26 24 23 23 23 23 23 23 24 24 25 25 27 28 24 23 23 23 24 25 26 27 27 27 28 29
22 20 20 21 23 26 27 29 28 27 32 27 27 25 24 24 24 24 25 25 25 28 29 30 33 29 24 23 22 24 25 26 28 29 29 30 29 31
21 21 21 21 22 24 25 29 30 31 27 27 27 25 25 26 25 25 25 27 28 29 32 30 26 25 23 22 22 22 26 26 26 27 28 29 29 30
23 23 22 21 23 23 24 29 29 28 29 30 27 28 30 28 31 33 31 30 31 32 29 25 26 26 26 26 25 26 27 28 27 28 28 29 29 28
23 24 24 22 22 23 24 26 28 31 34 34 34 32 31 29 26 27 27 26 26 26 26 27 27 28 28 28 27 28 28 29 30 29 29 29 28 25
26 24 25 24 23 24 24 24 25 26 25 25 24 25 25 23 24 25 26 26 26 27 29 31 31 30 29 28 27 27 28 29 29 27 28 28 26 25

GFSNE_700_spd_099.txt.gz
Wind_Speed
18 18 20 24 27 31 31 29 29 32 32 31 29 26 28 28 29 30 31 32 32 32 32 32 32 33 25 24 22 21 20 17 15 16 17 18 20 22
20 21 23 26 29 30 28 28 29 30 30 30 29 27 27 28 29 31 32 32 32 32 32 32 29 26 21 21 20 19 18 15 13 15 17 17 16 18
24 23 24 25 24 28 29 28 28 28 29 29 29 29 30 30 30 31 31 31 31 29 30 29 23 22 19 17 16 16 16 15 14 15 15 16 15 16
22 24 25 26 30 29 26 26 26 28 28 28 29 30 31 31 31 31 31 30 29 28 26 22 17 19 18 15 14 14 14 13 11 13 13 13 13 15
24 27 26 30 27 25 24 25 26 27 28 29 31 31 32 32 32 32 30 28 27 25 22 19 15 15 14 14 11 11 13 10 12 11 12 12 12 15
29 29 30 29 25 24 24 25 27 28 29 30 31 32 32 31 30 29 26 23 21 19 16 14 12 11 11 13 12 11 14 14 12 13 13 13 14 15
31 30 31 28 25 25 26 27 28 30 31 31 31 30 28 27 26 23 20 18 16 14 12 10 9 9 9 12 13 14 14 15 14 15 14 12 13 14
32 32 31 27 25 24 27 29 30 32 31 30 29 27 24 23 21 19 15 13 10 9 9 9 11 15 15 14 17 16 16 15 14 14 15 16 15 20
33 32 30 27 25 26 27 29 30 30 29 28 26 24 20 18 16 11 9 7 7 7 7 7 7 8 9 12 12 14 13 13 13 15 16 18 17 17
32 31 28 26 26 26 28 29 29 27 26 25 22 20 16 14 11 10 10 9 9 9 8 8 9 8 9 10 10 12 12 12 12 14 15 17 18 20
31 29 27 27 27 27 28 29 28 25 23 22 20 18 16 12 9 10 9 11 11 11 9 12 13 13 14 13 11 12 13 13 13 13 14 15 16 18
31 30 29 28 28 28 29 29 27 25 23 21 19 17 17 16 12 12 12 10 10 10 12 15 13 12 11 11 11 9 12 15 15 16 16 17 17 18
32 31 30 30 28 29 29 29 27 25 24 22 19 18 18 16 13 13 13 11 11 11 11 12 13 13 10 11 9 9 12 14 16 17 18 19 19 20
32 32 32 31 30 29 30 29 28 26 24 22 20 19 19 18 17 15 14 14 15 16 16 14 15 14 13 15 18 20 20 19 19 18 19 20 21 21
35 35 33 33 31 31 31 30 29 27 25 23 22 22 20 21 20 20 19 18 18 18 18 18 16 14 16 20 22 23 23 21 20 23 21 21 22 22
38 37 37 34 32 33 32 31 29 27 26 25 25 24 22 21 21 21 20 21 20 20 20 20 18 17 18 20 21 20 19 19 20 21 23 24 25 24
39 38 35 34 35 34 32 30 29 28 28 27 28 27 25 24 22 22 22 22 22 22 22 22 21 21 21 23 24 23 20 19 20 21 22 22 23 24
34 34 34 34 32 31 29 27 29 30 29 29 29 29 27 26 25 24 23 23 23 23 24 24 26 25 25 28 27 24 22 21 20 21 22 23 24 25
30 26 27 27 26 26 26 27 28 29 30 31 30 29 29 31 24 25 25 25 24 25 26 26 27 28 29 30 24 23 23 21 20 20 21 24 25 28
24 22 24 24 25 25 25 26 28 28 30 31 30 35 36 30 26 27 25 25 26 27 26 26 28 29 31 24 22 21 25 24 23 22 22 22 23 26
23 22 23 24 24 24 23 24 25 26 29 30 32 33 24 26 29 29 32 32 29 30 31 28 31 31 27 24 22 24 26 26 25 25 25 24 25 26
22 22 24 26 27 26 24 23 24 25 26 28 28 27 29 30 30 30 35 36 35 30 27 28 27 27 26 25 25 26 26 25 27 26 26 26 27 26
26 28 28 25 25 27 26 24 23 24 26 28 29 31 35 33 34 34 30 27 25 24 24 26 26 27 28 30 29 28 27 26 25 25 26 28 26 26

GFSNE_700_spd_102.txt.gz
Wind_Speed
20 19 20 21 20 20 22 26 28 28 25 25 26 23 25 25 25 27 28 28 30 30 31 31 31 30 29 28 25 22 21 20 18 18 18 18 19 21
20 21 22 22 21 22 25 28 28 29 29 26 26 24 24 25 26 28 29 29 31 32 31 31 30 28 27 24 20 18 18 18 15 15 15 17 16 17
23 24 24 24 21 23 25 28 29 29 27 25 25 25 25 25 27 28 28 29 30 30 29 29 28 26 23 19 17 15 14 14 15 13 14 16 15 14
25 27 27 25 25 24 27 31 29 27 26 25 25 25 27 28 28 28 29 29 29 29 28 26 24 21 19 16 14 13 12 11 13 12 12 13 11 13
29 29 27 26 27 28 27 27 26 25 25 25 26 27 29 29 29 30 29 28 28 27 24 21 19 17 15 12 12 10 9 8 9 8 10 9 10 12
33 32 32 31 30 30 28 27 26 25 25 26 27 28 29 29 29 29 27 26 26 23 20 16 13 12 9 9 9 8 9 8 8 8 8 9 10 10
35 35 35 33 32 31 30 27 25 25 26 27 29 29 29 29 27 26 25 24 20 17 14 11 9 7 5 6 7 8 8 9 7 10 10 11 10 12
34 36 36 35 33 31 31 27 25 26 26 27 28 28 28 26 24 24 22 18 14 10 9 7 7 8 11 14 14 13 11 9 14 17 14 13 13 11
37 37 36 35 33 31 30 27 26 26 27 28 27 27 24 23 21 19 16 11 10 8 6 6 7 7 8 8 12 13 12 13 12 13 14 16 17 18
39 37 36 34 33 30 29 27 26 26 26 27 25 23 23 21 17 15 12 10 10 8 8 10 10 9 7 7 7 8 9 9 9 11 12 13 16 17
39 37 35 33 32 31 28 25 27 26 25 25 24 22 20 18 17 13 11 11 12 11 11 11 10 11 12 12 12 12 10 9 9 9 10 12 15 16
37 35 35 33 32 30 29 27 26 27 26 25 23 22 21 18 16 14 13 11 14 13 12 10 12 11 9 10 11 13 10 8 10 10 13 14 15 16
37 37 35 34 32 31 31 29 28 27 27 26 24 22 22 19 19 18 14 13 13 14 12 10 9 10 10 10 8 7 7 8 10 12 15 17 17 17
39 38 36 35 33 33 32 30 29 27 28 26 25 22 21 20 21 20 17 15 15 16 16 14 12 12 12 10 10 12 15 16 16 16 16 16 17 18
42 39 36 36 35 34 33 32 30 28 27 25 24 23 22 23 22 21 20 19 18 18 17 16 16 16 14 12 12 14 16 17 18 18 18 19 18 18
46 43 41 41 40 37 35 32 31 30 28 26 25 24 25 24 24 23 22 21 20 19 18 18 18 17 17 16 15 16 17 17 16 16 17 20 22 21
49 45 42 42 40 37 35 33 32 31 29 27 25 25 27 27 26 24 22 21 20 21 21 21 20 19 19 20 19 20 21 20 17 16 16 18 20 21
43 46 42 40 39 35 34 33 32 30 26 27 27 28 29 29 28 26 24 23 22 22 22 22 22 22 22 23 23 23 26 21 17 16 16 18 21 22
39 32 31 28 27 29 29 29 27 25 26 27 29 30 29 30 29 27 24 23 22 23 23 24 24 23 23 24 25 24 25 20 16 16 16 17 19 22
33 30 28 23 25 25 25 25 23 23 25 26 27 29 29 29 29 29 30 33 24 25 23 24 24 24 23 24 25 26 24 21 20 19 19 20 20 21
31 30 25 23 22 23 22 22 22 22 23 26 27 28 27 30 30 31 35 31 27 26 24 22 26 28 28 28 26 25 23 21 21 21 22 22 23 23
34 29 25 21 20 21 21 21 21 21 22 24 25 27 26 28 31 28 26 27 28 28 27 33 36 31 28 26 25 23 23 23 24 22 21 22 23 24
27 26 23 22 22 22 23 24 23 22 21 22 23 25 26 28 27 28 27 29 33 37 33 30 27 24 23 23 24 24 25 28 26 24 24 24 23 23

GFSNE_700_spd_105.txt.gz
Wind_Speed
31 25 26 27 29 27 24 22 25 26 27 29 29 27 28 27 26 25 25 26 27 28 28 28 29 30 30 29 28 28 24 21 20 20 20 20 21 24
28 30 28 26 27 25 25 25 25 27 26 28 28 28 27 26 25 25 25 26 28 28 28 29 30 30 30 28 26 22 21 18 19 19 17 16 16 18
32 32 29 27 26 27 26 25 25 26 29 31 29 28 27 26 25 25 27 28 28 29 29 29 30 29 27 25 21 19 18 16 16 15 15 14 14 16
30 31 30 29 30 29 30 28 25 28 31 29 29 28 28 26 26 26 27 28 29 29 28 28 27 26 24 20 17 15 14 14 13 14 14 13 12 14
32 33 33 34 32 31 29 29 27 30 31 30 29 29 28 27 27 27 28 29 28 26 26 26 23 20 18 15 14 12 12 11 11 10 10 9 9 12
35 36 36 36 33 33 31 30 32 32 31 31 31 29 28 29 29 29 28 26 26 26 24 20 17 15 12 12 9 9 9 10 9 9 8 6 7 9
37 37 38 38 37 36 36 34 33 34 32 32 31 29 28 29 29 27 26 25 24 23 20 16 12 10 10 9 6 7 7 8 6 5 6 8 7 11
36 37 38 40 39 35 45 31 35 35 33 32 30 29 28 27 27 26 24 21 22 19 15 11 9 9 10 12 11 13 11 9 9 11 15 14 9 12
36 38 38 37 39 41 34 38 36 34 33 31 29 28 27 27 26 24 21 18 17 13 10 9 9 10 9 10 9 10 12 12 13 15 14 15 16 16
38 39 39 39 39 39 39 38 36 33 32 31 28 28 26 25 23 21 17 15 14 11 11 11 11 13 12 10 9 9 9 10 11 11 12 14 17 21
38 38 38 39 39 38 38 37 36 33 31 30 28 27 25 23 21 20 17 15 15 13 13 14 12 12 11 11 12 12 13 11 11 11 10 11 13 16
37 37 38 37 36 37 38 38 37 32 32 30 28 26 23 22 22 20 18 15 15 13 16 15 13 12 12 11 11 11 12 12 12 12 13 13 11 11
34 33 34 36 37 39 39 40 33 35 32 31 28 26 23 22 22 20 20 18 17 15 16 16 13 10 10 10 10 9 9 10 10 10 12 13 14 15
37 35 37 41 42 44 44 39 36 35 33 31 27 25 23 22 22 23 23 21 19 18 18 18 15 12 10 10 10 10 10 11 13 13 13 13 17 19
37 40 35 41 44 45 44 42 39 35 33 30 26 23 23 24 23 24 24 23 24 20 20 19 18 17 15 14 12 10 9 10 12 14 16 18 19 20
45 35 37 38 38 40 38 39 36 34 33 30 27 25 24 25 25 25 26 27 26 24 22 21 20 18 17 17 16 15 13 12 14 15 14 15 18 22
41 40 35 36 40 38 37 41 36 37 36 32 26 25 25 26 26 27 28 27 26 25 25 24 21 20 19 19 19 19 18 18 18 18 16 15 17 19
38 36 38 38 39 41 40 37 41 35 35 30 25 24 26 28 29 30 30 27 27 27 26 25 22 21 21 21 21 21 21 21 20 19 16 16 16 18
39 37 36 36 33 36 39 37 37 31 32 28 23 24 28 31 31 31 31 30 30 28 26 25 22 21 22 22 22 22 22 22 20 18 16 16 17 17
35 38 33 32 31 30 32 30 29 27 27 22 21 24 27 31 32 31 30 29 29 29 28 25 22 23 23 24 22 21 22 23 22 20 18 18 19 19
29 32 32 32 29 25 25 26 26 25 25 23 23 24 25 27 30 31 30 31 33 33 31 30 27 29 25 25 24 26 27 26 23 20 19 19 20 21
26 27 27 25 25 27 26 25 23 23 23 22 22 22 24 25 27 31 32 32 32 34 36 34 31 25 25 25 29 31 28 26 23 22 22 21 20 20
25 25 25 23 24 25 26 24 20 18 17 16 18 19 21 23 26 27 29 30 32 30 25 27 29 30 33 32 30 26 23 22 23 24 26 26 24 23

GFSNE_700_spd_108.txt.gz
Wind_Speed
37 32 40 28 19 26 30 31 33 33 31 29 28 28 28 28 28 28 28 27 26 26 27 27 27 27 28 28 29 29 27 26 25 24 23 21 20 21
32 29 30 29 30 32 34 35 34 31 31 30 29 28 28 29 29 28 27 27 26 26 27 27 27 27 28 30 28 26 25 23 22 21 20 19 18 19
27 29 33 36 39 37 36 36 34 31 31 30 28 29 30 29 29 28 27 27 27 27 27 27 27 26 28 28 26 24 22 21 20 18 18 15 16 16
34 38 38 40 41 40 43 35 33 32 32 29 29 30 29 28 28 29 28 28 28 28 28 26 25 26 27 26 23 21 19 17 16 15 15 13 13 13
35 34 36 36 38 39 33 33 38 34 39 31 30 30 31 30 30 29 30 29 29 29 28 26 24 25 24 22 19 17 15 14 12 12 11 11 11 13
37 39 36 37 41 42 40 42 41 38 35 32 32 31 31 31 31 30 30 31 31 28 26 24 24 23 20 17 15 14 13 11 9 10 10 9 9 10
41 42 43 44 45 47 36 42 46 36 35 35 34 31 31 31 31 31 31 31 29 26 25 23 22 18 15 14 12 11 11 9 9 10 7 6 7 10
43 42 43 45 43 47 45 44 48 40 35 43 36 29 30 32 31 31 31 30 28 24 22 21 18 14 14 12 12 13 14 11 10 12 12 13 12 13
45 47 47 44 43 37 40 42 44 40 37 31 32 31 30 32 32 31 31 29 25 22 19 17 16 13 13 14 13 12 11 12 14 16 15 16 16 15
44 44 45 44 40 42 42 44 40 41 35 31 34 34 32 31 31 30 29 26 23 20 18 16 15 13 13 15 14 13 11 12 11 12 13 15 15 13
42 42 42 40 41 43 39 36 36 36 39 36 35 34 32 32 31 28 25 23 22 20 19 16 16 16 13 13 12 13 15 15 13 12 11 12 14 17
44 43 41 40 40 39 39 39 41 38 35 38 36 34 33 33 30 28 26 23 22 21 20 18 19 16 14 13 14 14 14 14 13 14 12 12 12 13
43 41 38 38 38 39 40 42 41 39 41 42 40 37 33 32 29 29 26 25 24 23 22 19 20 17 14 12 12 12 11 11 12 12 12 13 14 14
43 41 40 39 39 41 42 42 44 45 45 44 44 36 34 30 31 30 27 26 26 25 23 20 19 18 15 12 12 11 11 10 10 11 12 13 15 17
42 41 42 44 43 42 41 46 47 46 46 46 47 38 35 35 33 31 29 27 28 28 24 22 22 19 17 16 14 11 11 10 10 10 12 16 20 19
40 41 42 42 39 40 45 37 39 38 41 45 45 41 40 34 30 29 29 29 30 29 27 24 23 22 21 20 17 14 14 13 13 12 12 13 16 19
36 40 42 43 38 37 38 37 38 35 36 38 41 41 39 37 33 27 31 32 29 29 28 26 25 23 22 21 19 17 17 17 18 18 17 16 15 17
31 35 36 43 42 41 39 36 34 31 30 30 35 39 40 37 30 30 32 30 30 30 30 29 28 26 25 23 21 20 19 19 19 19 19 18 16 16
29 33 33 36 35 32 33 33 32 33 35 34 33 33 36 36 32 33 32 32 32 32 30 29 29 28 26 23 23 22 21 21 20 19 18 19 16 16
26 29 30 30 31 32 31 31 31 32 36 34 32 33 34 34 30 32 32 31 32 32 31 31 29 27 26 28 27 24 24 23 21 20 20 21 19 17
24 26 29 28 28 30 31 30 30 31 31 31 33 32 31 29 29 33 32 31 32 33 32 30 29 32 33 26 25 25 27 26 24 25 25 22 20 19
23 24 26 28 28 29 27 27 28 29 27 27 30 29 32 30 28 29 32 32 31 30 29 33 37 34 29 31 29 30 28 28 27 30 28 24 21 20
21 23 23 25 26 26 26 27 28 27 25 25 28 29 27 25 25 28 30 33 34 32 33 36 35 33 32 32 31 30 30 32 32 28 24 23 23 23

GFSNE_700_spd_111.txt.gz
Wind_Speed
50 48 45 48 38 48 47 39 35 30 31 28 29 30 31 30 30 28 29 29 28 28 28 27 26 26 27 28 28 26 26 27 26 25 24 23 23 23
51 51 49 41 47 46 45 32 30 32 35 35 36 30 31 29 28 29 30 29 28 27 28 28 28 28 27 28 27 27 26 25 24 23 23 22 21 21
31 33 33 31 37 39 42 39 36 34 36 38 35 32 33 29 28 29 28 27 27 27 27 28 28 29 29 27 26 27 25 23 21 21 19 19 19 20
34 37 37 37 39 39 42 45 47 46 45 41 36 34 32 32 31 28 27 27 27 27 28 30 29 28 30 26 27 24 24 21 20 18 17 17 18 18
38 39 39 41 43 46 49 42 44 49 47 48 38 36 37 35 30 28 27 27 27 27 29 30 31 29 28 27 25 21 21 18 17 16 15 15 16 15
42 43 44 45 46 44 45 48 43 46 45 49 39 43 40 31 31 26 27 27 27 27 29 30 29 28 26 26 22 19 17 15 14 15 14 14 14 10
45 46 47 48 49 49 45 46 42 48 47 48 41 46 47 36 26 26 28 27 26 26 29 29 28 26 24 24 20 16 13 13 14 13 12 12 10 8
48 49 50 50 50 50 52 51 40 49 40 47 42 45 43 43 30 22 26 28 27 27 29 28 25 25 23 20 17 15 13 14 15 15 13 15 14 12
48 49 50 51 52 52 52 47 51 43 42 49 46 30 37 32 24 21 27 28 27 27 27 26 23 24 21 18 16 16 15 12 14 16 18 17 16 16
51 51 50 49 50 52 51 50 50 46 41 37 33 33 29 32 23 26 30 29 26 26 25 24 23 22 19 17 15 17 16 15 15 14 13 13 14 14
51 52 52 50 49 48 49 47 46 43 46 52 47 42 31 30 30 31 30 28 27 25 25 23 23 21 20 17 17 17 15 14 14 15 14 12 11 12
51 51 51 51 46 41 44 45 46 50 44 39 34 41 33 36 31 33 31 29 27 25 24 22 23 22 19 17 17 16 16 16 16 15 15 12 12 11
50 47 46 47 43 43 42 44 44 44 42 48 49 47 40 33 36 35 32 30 27 27 26 24 24 22 20 18 17 16 15 15 15 13 12 12 13 12
44 43 42 43 45 42 44 46 44 48 42 42 49 44 43 40 40 38 36 32 30 29 28 26 25 22 21 20 17 16 14 12 10 10 12 12 12 12
42 42 42 42 39 40 42 47 47 42 41 41 47 42 43 43 43 40 38 35 32 31 28 27 27 24 22 20 17 15 13 12 11 10 12 14 15 15
39 40 40 37 36 38 38 38 41 43 40 39 41 36 36 38 42 43 42 38 33 31 29 29 29 26 24 23 20 18 14 13 13 12 11 8 8 12
35 35 36 32 38 38 39 36 43 44 32 31 30 31 33 33 35 40 42 41 35 33 30 31 31 29 26 26 24 21 18 16 17 17 16 14 12 11
34 33 32 31 29 31 36 40 37 41 32 29 31 31 30 29 32 36 42 42 38 35 32 33 33 31 28 28 25 23 20 19 18 18 17 15 14 13
33 32 30 28 27 26 30 30 32 31 33 32 28 28 29 28 30 31 31 40 36 33 33 35 35 33 30 28 26 26 23 21 19 18 17 16 15 14
32 31 28 26 26 27 27 29 30 31 31 30 30 29 32 29 29 30 30 35 35 32 33 34 34 32 29 28 29 29 25 22 21 19 17 19 18 17
30 29 27 26 27 27 26 26 28 30 30 30 32 31 34 30 30 29 26 34 34 34 33 32 32 34 32 30 30 29 27 26 26 25 25 26 25 23
30 28 27 24 25 25 24 25 26 29 30 31 30 30 31 29 29 28 26 34 33 32 31 34 36 34 31 29 28 27 29 28 27 27 26 27 27 26
27 27 26 25 23 23 22 23 25 26 28 28 28 27 25 25 26 25 28 33 33 34 32 36 35 33 31 30 34 32 34 33 31 29 30 30 28 26

GFSNE_700_spd_114.txt.gz
Wind_Speed
40 40 43 43 45 52 61 58 53 51 46 42 39 25 32 30 30 33 26 27 28 29 29 27 26 25 24 24 27 27 28 27 26 25 23 23 21 21
38 43 46 43 42 45 50 49 41 38 46 42 29 28 31 33 32 30 25 27 27 28 27 25 25 23 24 24 26 28 28 26 26 24 23 22 21 19
30 30 31 31 36 36 38 38 36 37 42 38 34 38 38 40 36 28 27 24 26 26 25 26 24 24 24 24 25 27 27 27 25 23 21 21 19 17
34 34 35 36 39 41 41 40 38 42 42 46 44 49 45 39 35 31 31 26 29 27 27 25 25 25 25 25 25 26 26 26 22 22 21 19 18 16
37 39 41 42 43 44 46 48 46 42 40 45 49 50 48 50 41 34 35 28 28 28 27 25 25 24 26 26 24 24 24 24 22 19 18 17 17 14
40 41 43 45 46 48 48 49 50 51 50 47 45 48 47 46 47 44 37 36 32 27 23 25 26 25 26 27 23 24 21 21 20 17 16 16 14 11
43 45 47 48 49 50 52 52 52 52 52 50 51 46 46 41 39 41 44 40 33 27 21 26 26 25 25 25 23 21 20 19 18 15 14 15 13 8
46 47 49 51 52 54 55 55 56 54 54 53 42 53 44 43 41 42 41 36 38 22 24 24 26 25 25 24 21 21 19 18 18 15 15 15 14 13
49 51 50 50 51 54 55 56 56 54 54 47 47 50 48 42 37 45 32 25 23 22 24 27 25 25 24 23 21 20 19 17 17 14 14 15 16 15
50 52 53 55 54 54 55 54 51 48 46 47 44 43 39 42 38 36 35 33 27 27 26 28 24 24 23 20 20 20 18 17 17 16 14 13 12 11
51 54 57 58 56 53 55 54 49 43 42 43 43 50 45 45 38 38 32 33 24 26 27 25 21 24 22 21 20 19 18 18 17 15 13 14 11 10
55 58 58 55 50 46 46 47 48 44 44 47 46 50 39 44 53 49 41 37 31 30 27 25 23 23 22 21 20 19 18 18 18 16 14 14 12 10
53 55 54 50 46 43 43 43 45 39 41 47 43 45 50 55 41 43 43 36 33 29 27 26 24 25 22 23 22 20 18 18 18 16 13 13 13 12
45 45 46 46 45 44 40 37 36 40 37 42 38 41 39 42 40 35 38 31 28 30 29 28 26 26 24 25 23 20 18 17 15 13 12 13 12 12
43 44 44 44 43 41 38 35 31 36 39 36 36 31 31 39 40 33 39 34 35 33 31 30 28 27 27 26 24 21 18 16 15 12 10 11 11 11
42 41 37 37 38 37 34 30 28 35 32 33 34 33 34 33 33 34 34 34 33 37 36 33 30 29 28 28 25 23 19 16 15 14 11 9 7 9
42 40 37 34 33 31 31 30 31 29 25 32 32 27 27 33 31 33 33 33 37 38 39 36 32 29 28 27 26 25 22 19 16 16 15 13 10 7
40 38 34 31 31 29 26 25 30 33 32 29 28 24 24 31 28 25 27 28 31 34 40 36 35 34 31 30 29 28 25 21 19 17 17 15 11 10
39 36 32 29 29 27 25 24 25 25 26 27 29 29 28 28 24 24 24 25 28 27 35 38 38 35 32 31 30 30 27 23 20 18 16 14 12 10
37 35 31 27 26 27 24 24 25 25 26 27 26 25 27 28 23 24 23 22 24 26 28 36 39 36 30 30 32 29 27 25 23 19 16 16 15 15
35 32 28 27 25 25 25 24 25 25 24 25 27 27 26 26 25 25 22 22 21 24 25 34 31 32 32 32 32 31 28 26 26 22 20 20 17 16
34 30 26 25 25 24 25 24 24 24 24 23 23 24 24 24 25 25 23 21 20 20 25 36 34 31 31 31 32 30 27 27 27 24 23 23 21 20
32 27 25 23 23 24 24 23 23 23 22 21 21 22 24 24 23 24 22 21 22 22 30 33 29 30 31 31 32 31 29 28 26 24 25 25 24 23

GFSNE_700_spd_117.txt.gz
Wind_Speed
37 38 41 45 49 46 42 44 50 54 55 52 38 34 35 37 32 26 33 34 33 36 31 26 27 27 27 28 27 25 26 25 25 24 24 24 22 22
36 38 37 33 35 41 41 51 49 49 50 47 40 33 36 31 30 31 35 32 39 38 32 27 25 27 29 28 27 26 27 26 25 25 23 23 21 21
33 36 33 33 34 36 36 39 38 39 45 42 40 38 36 35 36 41 35 38 44 43 34 28 28 27 28 28 27 28 27 27 26 26 22 22 20 20
25 31 34 35 38 38 40 41 42 43 46 47 45 48 41 44 43 47 49 46 39 50 40 31 31 27 27 28 26 27 29 30 26 26 21 19 19 18
32 34 36 39 41 42 43 45 46 46 47 49 51 49 47 47 44 45 46 49 43 48 46 37 31 28 27 28 26 28 28 28 27 23 21 18 17 16
33 36 38 42 43 45 47 48 49 51 52 52 54 53 52 49 47 53 45 43 38 42 49 42 39 35 27 26 28 29 28 26 26 23 19 17 15 15
36 39 42 44 46 49 52 52 53 54 55 55 56 56 54 50 47 48 48 49 38 38 42 40 40 32 29 30 31 29 28 26 24 22 19 16 14 15
37 39 42 44 47 49 51 53 55 55 56 55 54 52 52 48 37 41 47 43 47 36 37 38 37 28 29 31 30 27 27 24 22 20 18 15 15 16
40 43 44 46 49 51 52 54 56 56 55 54 52 49 40 40 43 47 51 43 39 35 32 33 30 25 30 29 29 26 25 23 21 20 18 17 16 17
42 45 48 49 51 54 57 58 57 54 49 48 49 46 43 48 45 43 39 40 46 43 35 37 31 32 33 29 27 24 24 23 22 20 19 17 16 17
40 42 45 49 51 56 59 61 60 56 46 44 42 40 41 45 38 45 45 50 43 42 43 44 35 33 32 30 26 25 25 24 21 20 18 17 17 15
36 38 40 43 46 49 52 53 54 50 46 43 41 39 43 45 42 43 44 44 42 42 38 44 40 33 34 28 26 26 25 22 20 18 18 17 15 16
37 39 41 42 44 44 44 46 47 45 43 42 33 36 32 41 36 41 39 41 44 43 42 40 32 30 31 27 26 25 24 22 20 19 18 17 16 16
41 42 45 45 44 40 37 39 39 38 36 35 32 31 31 34 31 32 31 34 33 38 47 46 40 35 30 26 25 25 25 22 20 19 17 16 16 16
39 40 41 40 39 36 34 34 34 31 30 30 30 28 32 30 28 26 28 33 25 30 36 33 32 29 25 26 27 27 26 22 20 17 14 15 16 17
34 33 34 35 35 34 31 30 31 27 23 25 28 27 26 28 31 25 25 28 31 27 32 29 29 29 27 27 29 28 26 23 20 17 16 14 15 16
36 33 33 33 32 29 27 26 26 24 23 25 22 23 22 24 22 23 23 25 28 25 24 27 33 32 30 29 30 29 27 24 20 19 18 16 14 12
36 35 35 36 33 29 26 24 23 21 20 23 27 25 20 18 20 19 18 22 25 25 24 25 29 34 34 30 31 32 30 27 23 21 19 19 16 12
35 36 35 34 32 28 25 23 22 19 19 19 21 23 26 26 27 23 20 20 23 24 23 25 28 34 37 33 32 33 34 30 25 22 20 19 17 14
35 36 35 32 29 26 24 23 21 20 18 18 20 22 22 23 24 22 21 21 22 21 22 24 24 29 37 36 36 37 34 32 27 23 21 19 17 15
34 34 33 31 27 25 23 22 22 21 18 16 18 20 23 25 25 22 21 22 20 21 20 20 20 29 36 39 38 37 34 31 28 26 26 21 18 16
35 35 34 27 24 23 22 22 21 20 17 16 17 19 20 20 22 21 21 21 19 17 17 19 22 26 31 39 37 34 31 30 28 26 24 19 19 18
34 34 29 23 22 21 21 21 20 19 16 16 16 18 19 18 19 20 20 20 18 19 18 21 23 29 35 37 33 32 30 29 28 27 26 24 23 21

GFSNE_700_spd_120.txt.gz
Wind_Speed
26 29 32 32 34 34 36 42 48 49 42 43 44 44 47 46 37 38 37 33 32 30 35 37 38 33 35 36 34 33 32 31 31 31 30 30 28 26
26 33 33 36 39 41 37 36 39 39 41 41 40 37 37 36 38 39 38 34 37 34 38 36 36 37 37 39 35 35 35 34 32 32 32 31 30 27
25 23 26 29 31 33 36 39 38 40 43 45 45 45 46 43 44 45 36 38 37 42 37 37 40 46 45 45 36 37 37 36 33 33 32 32 29 28
23 23 30 27 27 36 39 39 42 44 46 51 51 51 50 48 48 46 47 44 45 42 42 41 45 44 47 47 43 39 38 36 35 33 31 31 29 27
22 26 30 33 36 39 42 45 46 48 49 53 55 55 54 53 52 48 48 46 44 45 46 49 46 42 48 52 48 42 38 38 35 31 31 29 27 27
28 31 34 37 40 43 45 48 50 52 54 56 57 59 59 57 55 53 49 44 48 45 48 48 44 42 43 50 49 43 37 37 34 33 26 28 27 25
32 35 37 40 42 44 47 49 51 53 55 56 58 58 60 59 57 55 54 48 45 45 47 45 49 45 46 46 49 46 38 38 37 31 27 26 26 24
32 34 37 39 43 45 48 51 54 56 57 59 59 59 59 58 55 52 48 49 49 46 47 51 50 51 40 39 38 43 44 38 33 30 26 25 25 23
34 37 40 43 46 48 50 52 53 53 56 57 59 57 57 51 48 47 43 44 48 43 46 43 46 43 37 40 41 40 38 35 28 30 28 25 25 24
36 39 41 43 46 49 51 53 54 55 56 57 58 58 53 50 44 42 42 44 46 48 44 45 54 43 42 44 41 37 36 31 27 32 29 26 25 23
36 38 40 42 44 44 47 49 51 52 53 54 54 53 51 48 45 44 44 44 46 43 45 46 47 45 45 44 43 43 33 30 31 34 26 25 23 23
35 37 38 39 41 43 46 48 49 46 45 43 42 42 40 40 43 45 45 46 40 43 40 36 42 46 51 46 49 42 31 30 30 30 25 23 23 23
34 35 36 38 40 41 42 41 41 41 39 39 38 36 34 32 29 33 45 36 43 44 35 36 37 38 40 39 41 39 31 31 29 27 25 23 23 22
37 37 39 38 38 36 36 37 37 36 35 35 34 33 31 27 26 28 32 33 31 31 26 32 34 37 35 33 33 35 29 28 28 27 25 23 22 20
38 38 38 37 35 34 34 34 33 32 32 31 31 29 23 24 26 24 30 26 31 25 27 27 30 27 29 30 30 32 27 28 28 27 25 22 20 20
35 35 36 34 33 32 32 31 31 31 31 30 29 24 20 20 24 24 21 26 27 25 22 23 24 23 26 30 33 31 31 32 30 27 23 21 19 20
36 35 34 31 28 28 30 30 29 29 28 27 25 22 20 18 20 20 20 18 22 23 20 20 22 23 24 26 32 34 31 32 29 26 22 20 18 19
39 39 35 32 30 30 29 26 26 27 26 25 22 20 19 22 20 18 17 17 21 19 18 19 20 19 20 21 31 31 31 30 28 26 23 21 18 17
39 38 35 34 33 31 30 28 25 25 24 23 20 19 19 19 20 23 24 23 22 19 19 19 18 20 21 22 28 31 29 31 31 29 25 22 20 17
38 35 34 34 33 33 29 26 25 24 22 21 19 18 18 19 18 18 20 22 22 19 19 18 18 20 22 24 28 33 33 35 34 31 25 22 20 18
35 33 34 34 34 31 26 24 23 22 21 19 17 18 18 17 18 20 20 21 21 18 17 17 17 19 23 28 31 37 38 35 33 32 27 25 20 19
34 32 33 33 31 26 23 23 21 21 20 20 17 17 17 16 16 16 18 20 19 16 16 18 19 18 21 26 35 42 42 37 36 36 32 28 24 19
32 31 32 31 28 24 22 20 20 21 22 18 16 16 16 15 16 16 16 17 17 17 17 18 16 17 19 23 34 38 38 36 34 35 33 29 27 22

GFSNE_700_spd_123.txt.gz
Wind_Speed
32 27 28 34 31 27 29 31 35 38 36 33 36 30 33 34 36 36 37 34 33 37 38 37 34 33 31 33 34 37 37 38 40 38 37 34 35 34
22 26 31 27 27 30 31 31 35 40 41 36 38 39 39 38 40 39 42 43 42 42 42 39 36 34 37 35 35 37 38 41 43 44 39 38 37 37
21 22 26 26 30 31 32 34 34 34 41 43 48 45 47 47 47 47 47 48 48 45 44 41 41 44 41 44 44 43 42 44 47 47 42 42 40 39
8 16 23 21 23 24 28 32 34 37 45 49 50 52 52 52 52 52 52 52 53 52 51 50 42 44 45 42 46 42 44 44 47 49 46 44 43 38
16 18 24 23 24 30 35 38 41 44 47 52 55 56 57 57 58 57 56 56 56 54 54 55 46 47 50 49 45 47 42 41 48 54 50 45 41 39
19 21 26 29 32 35 39 42 45 48 50 54 57 58 59 60 60 60 61 59 58 55 53 49 49 51 49 55 52 49 52 45 50 54 53 44 42 40
25 27 29 33 35 39 42 44 47 50 52 54 56 58 59 60 61 60 61 59 57 55 52 48 47 50 49 48 53 57 60 44 49 48 48 43 39 36
26 28 31 34 37 40 43 45 48 51 52 54 57 58 59 58 57 58 59 58 58 55 49 48 45 45 47 51 50 51 45 51 47 49 46 47 34 33
27 30 33 36 39 41 45 46 47 48 51 53 56 56 58 57 59 59 57 55 54 47 46 45 40 44 48 46 52 54 52 44 42 41 45 40 28 28
31 33 36 38 41 44 45 47 46 46 48 52 55 56 56 56 55 55 54 53 49 44 38 43 43 44 36 46 39 47 45 41 43 40 38 35 23 29
33 35 37 39 41 43 45 46 46 46 48 48 48 47 47 46 45 48 46 45 46 41 38 41 44 45 41 36 35 38 47 45 44 42 36 29 25 29
34 36 39 40 41 42 44 45 46 45 43 40 37 36 35 36 37 40 41 41 39 40 37 38 36 36 32 39 34 36 49 48 46 38 29 28 27 28
34 37 39 39 40 41 42 44 44 44 39 38 36 32 29 28 31 33 34 35 33 29 38 36 36 35 38 32 30 26 28 30 30 31 29 28 25 22
36 37 38 38 39 39 39 40 39 38 37 37 35 32 31 30 29 28 27 27 27 26 26 30 32 27 30 26 24 23 28 31 27 31 29 27 23 22
38 38 39 38 38 37 36 35 34 34 35 34 32 31 30 29 26 26 24 23 24 24 24 24 26 25 25 23 24 20 24 23 26 24 25 27 24 24
40 40 41 40 39 37 34 32 32 34 34 34 31 29 27 25 23 22 18 20 20 21 23 22 25 25 20 19 19 18 21 22 24 25 25 25 23 21
39 39 39 39 38 36 34 32 31 32 33 32 31 29 26 23 22 20 17 17 18 19 19 19 20 19 16 17 19 17 20 22 25 25 26 23 20 18
39 39 38 37 36 33 31 29 30 32 32 29 28 26 25 22 20 19 20 18 18 19 19 18 17 15 14 14 15 17 19 23 24 26 26 23 20 19
39 39 39 39 37 34 32 30 30 29 27 26 25 23 24 22 20 19 18 19 18 19 19 18 15 14 12 11 12 13 23 30 28 31 26 24 21 18
37 37 36 36 34 32 31 30 27 24 23 23 22 22 23 21 20 18 18 17 17 16 16 17 16 14 12 13 12 11 28 29 29 30 26 23 21 18
36 35 35 34 32 31 30 29 25 22 22 22 21 22 22 20 19 19 17 18 18 16 16 14 16 15 15 15 17 15 26 30 33 31 29 27 20 19
35 34 34 33 31 30 28 27 23 21 21 22 22 22 21 19 18 18 16 16 16 15 15 14 15 15 15 15 18 18 23 32 27 31 32 29 23 21
35 33 32 31 30 29 27 25 22 20 21 22 21 21 19 17 18 16 15 14 14 14 15 14 13 14 14 15 21 24 23 31 29 32 34 32 27 23

GFSNE_700_spd_126.txt.gz
Wind_Speed
35 35 30 29 30 32 31 32 32 32 31 26 30 27 32 35 33 36 37 34 37 38 40 41 41 41 40 39 36 31 33 35 36 38 38 39 38 39
34 28 32 28 31 31 31 29 29 32 34 33 35 34 33 35 35 42 40 42 42 42 43 44 45 45 44 42 41 37 35 38 41 38 40 41 43 43
25 31 27 29 27 26 27 27 31 33 34 37 36 36 37 40 42 47 45 49 49 49 48 49 49 49 48 46 44 43 43 41 42 40 44 42 44 45
22 26 18 26 22 22 22 26 27 30 35 40 41 43 46 48 49 51 52 53 55 55 55 55 54 53 53 50 49 50 49 49 45 49 46 42 44 44
18 17 21 18 22 25 24 27 31 35 41 45 47 49 51 53 55 55 56 56 57 57 57 56 55 54 55 53 52 51 49 50 50 52 49 50 45 47
18 19 22 22 24 28 32 34 37 40 43 47 50 52 53 55 56 57 58 57 58 56 56 55 53 52 53 52 51 49 50 52 51 48 50 52 49 51
21 23 25 27 29 31 33 36 39 41 44 47 49 51 52 52 54 56 59 61 60 60 58 55 50 50 49 48 49 49 50 50 49 49 51 52 54 48
22 24 26 27 29 32 34 36 38 41 43 47 49 51 53 53 55 58 60 62 64 58 58 57 49 46 44 43 45 49 48 48 53 47 49 52 45 44
21 24 26 27 29 31 33 35 38 42 45 48 50 51 53 53 55 57 57 57 55 54 51 53 46 45 38 35 41 45 48 48 45 46 44 47 44 44
22 24 26 28 30 32 35 37 39 41 43 45 48 48 49 49 49 50 50 50 50 45 41 44 38 37 31 29 29 31 37 36 48 40 43 43 40 32
23 25 27 30 33 35 37 39 41 41 41 42 42 42 42 42 42 45 44 45 45 40 34 37 31 30 27 21 23 28 31 31 30 32 33 37 34 26
25 28 29 31 34 37 40 42 43 42 42 39 37 36 36 37 37 37 39 40 40 37 30 30 25 26 26 22 24 26 32 25 26 21 24 29 28 25
26 29 32 34 35 37 40 41 42 43 41 40 37 33 32 31 33 33 33 35 34 31 27 24 24 22 20 24 25 23 24 23 17 15 23 26 26 26
29 31 31 33 35 37 38 40 41 42 41 39 36 32 32 30 28 28 28 27 26 26 22 21 25 23 22 26 26 25 20 19 16 17 18 18 22 25
29 29 31 33 34 36 37 38 39 40 39 37 35 32 32 31 29 28 26 22 18 18 19 21 21 21 22 22 24 23 19 18 13 14 16 20 22 24
30 30 31 33 34 34 35 36 37 37 37 35 33 32 30 28 27 27 23 18 15 14 14 17 17 20 21 19 22 18 15 14 13 11 15 18 25 21
31 32 33 34 34 35 35 36 35 34 34 34 33 31 28 27 25 25 22 19 15 11 11 14 16 16 16 14 17 14 11 11 10 12 16 22 19 19
32 32 32 33 34 35 36 36 34 34 34 33 30 28 27 25 24 23 21 19 17 17 15 16 15 15 13 13 14 11 10 10 7 17 22 18 18 18
33 33 33 34 34 35 36 35 32 31 32 31 27 25 25 24 24 22 20 18 17 15 15 15 14 13 12 13 11 10 9 8 10 23 21 22 22 19
35 33 33 33 34 35 35 34 31 29 29 27 25 23 23 24 22 21 19 18 17 15 13 13 13 11 11 12 13 11 7 8 14 21 22 24 20 17
32 31 30 31 32 33 32 31 30 28 27 24 23 22 21 22 20 20 18 17 17 15 14 14 13 11 11 10 11 10 7 13 24 27 24 22 20 17
30 30 29 30 31 32 30 28 28 27 24 22 21 21 21 20 19 17 17 15 16 14 13 13 12 10 10 9 11 12 9 15 25 25 24 25 23 22
29 29 29 30 31 31 30 28 28 25 22 21 21 21 20 19 17 16 16 15 15 13 12 12 10 8 9 9 11 14 11 11 19 18 25 27 24 22

GFSNE_700_spd_129.txt.gz
Wind_Speed
40 39 37 37 40 39 35 36 32 33 31 31 27 26 28 28 29 33 38 39 37 41 42 42 40 42 43 43 43 43 42 41 39 40 39 34 33 36
41 41 37 40 36 34 31 33 34 31 31 28 28 28 28 34 38 36 39 40 42 45 44 44 45 45 46 47 47 48 48 47 44 44 46 41 40 40
42 42 45 46 36 32 31 34 30 27 27 29 33 32 32 36 37 37 40 42 44 47 49 50 51 51 51 51 50 51 52 51 49 49 49 49 48 45
42 32 34 33 26 32 27 30 28 25 29 31 32 37 37 40 45 44 46 48 50 51 52 53 53 54 54 54 54 53 52 52 52 51 52 49 52 46
36 22 19 16 22 24 26 27 25 28 31 35 38 40 43 45 47 48 49 50 51 52 51 51 52 53 54 53 54 54 53 51 51 53 51 53 52 51
19 19 21 22 24 24 23 26 30 33 38 40 41 41 44 45 47 49 48 50 52 51 51 52 52 52 52 52 53 54 54 52 50 51 53 51 52 51
17 18 21 23 24 26 28 29 32 34 36 38 40 41 42 43 46 47 51 53 53 53 54 54 52 52 49 49 51 51 52 52 50 50 52 53 52 41
18 19 21 23 24 25 27 29 31 32 33 35 37 40 41 45 47 49 52 53 56 52 53 54 50 49 44 44 42 44 44 47 50 49 50 46 56 40
18 20 21 23 25 25 25 27 29 31 34 37 38 41 44 45 48 49 50 53 54 52 52 54 46 43 40 38 35 36 38 39 42 41 42 43 40 51
19 21 21 23 23 24 25 27 29 32 34 38 39 40 42 43 46 49 50 51 50 48 44 49 39 36 33 29 26 27 28 32 29 27 29 35 47 45
18 19 21 22 23 25 27 28 28 29 31 34 36 38 40 42 44 47 47 48 48 44 33 40 33 32 27 22 23 20 19 21 22 20 25 29 32 33
20 22 23 25 27 29 29 29 29 30 31 32 35 37 39 40 41 43 44 45 44 43 32 35 27 27 25 15 12 15 19 21 24 27 24 22 30 25
20 22 25 27 28 28 29 30 32 33 33 35 35 36 37 37 37 36 37 39 38 36 33 33 25 21 22 19 14 17 20 20 22 23 23 16 25 22
22 24 26 27 27 29 30 32 33 34 36 36 37 37 37 34 33 33 33 33 32 33 27 24 23 19 21 21 19 16 18 19 20 20 20 18 19 23
24 26 27 27 28 29 31 32 34 34 36 38 39 38 36 33 31 31 29 29 27 27 22 19 18 19 21 24 23 17 18 16 17 17 20 19 15 16
25 26 27 27 29 30 31 33 34 35 37 39 39 37 35 32 30 29 26 25 23 20 20 18 17 17 19 21 19 15 15 14 14 15 16 15 14 14
27 28 29 30 30 31 31 32 33 35 37 38 37 35 33 29 26 26 25 23 21 17 18 19 17 18 19 17 14 13 14 14 12 11 12 13 12 17
28 28 30 31 30 31 32 31 33 35 36 36 34 32 29 25 23 22 23 21 19 16 16 18 19 19 18 16 12 10 11 11 10 5 9 13 20 17
29 30 32 32 32 33 33 33 34 35 35 34 32 30 27 24 23 21 20 20 18 16 15 16 16 16 17 16 11 9 10 10 6 5 14 22 20 21
31 33 33 32 32 33 32 33 33 33 33 32 30 28 25 23 22 20 20 19 16 15 14 16 16 16 15 14 12 9 9 7 6 10 21 20 21 21
34 34 34 33 33 32 33 32 32 32 31 29 27 25 23 21 21 20 19 17 15 14 13 14 16 15 15 13 10 9 8 5 10 18 21 17 16 18
36 34 33 33 32 33 31 31 31 29 29 27 25 23 21 21 21 18 17 15 14 13 13 13 13 14 13 10 8 8 6 3 11 19 19 17 21 22
35 34 32 29 32 31 29 31 30 27 27 26 23 21 21 20 20 17 15 14 13 12 14 13 12 12 11 9 8 6 6 4 10 19 17 23 24 20

GFSNE_700_spd_132.txt.gz
Wind_Speed
43 44 44 44 44 41 40 39 42 44 37 35 36 30 32 31 30 30 32 31 34 38 42 46 42 43 44 44 44 46 47 45 45 44 45 45 44 43
38 41 43 43 42 41 41 42 40 36 39 39 34 32 31 31 28 29 32 37 39 41 41 39 41 44 48 47 47 48 49 49 49 49 48 48 48 48
38 38 40 41 41 44 45 41 46 44 36 35 31 30 21 32 29 32 36 40 42 42 42 42 44 46 48 49 49 50 50 50 51 51 51 52 50 50
35 38 40 42 42 45 51 47 36 34 31 32 30 32 31 30 35 40 40 44 45 45 45 46 48 48 50 50 50 51 52 52 52 51 51 53 53 52
36 37 35 32 36 27 25 27 24 27 29 29 28 29 33 37 41 42 42 42 43 44 44 45 46 48 49 49 51 52 53 54 56 55 53 52 53 51
34 22 17 26 23 26 24 25 26 27 28 29 32 34 36 39 40 40 39 41 41 42 44 45 46 46 47 50 51 53 54 56 56 55 51 50 51 52
17 31 20 19 22 23 26 27 27 29 30 32 34 34 35 37 39 40 42 42 41 42 44 44 46 45 46 50 50 52 53 53 53 53 51 47 48 51
13 15 18 20 22 24 25 26 28 29 30 30 33 34 35 38 40 41 42 45 45 38 43 44 43 42 44 44 47 48 47 48 50 48 47 44 44 47
15 15 17 19 21 22 24 25 26 28 30 31 33 35 35 38 40 40 41 44 45 43 46 47 43 43 42 40 41 41 40 40 41 41 40 38 35 39
16 17 19 20 21 22 24 25 27 29 32 34 35 35 36 36 39 42 42 43 44 42 44 49 43 43 39 36 36 35 35 34 32 28 26 26 26 25
18 19 20 21 22 23 25 27 29 31 32 33 33 34 35 37 39 41 41 44 45 44 38 45 40 41 34 29 30 31 31 29 24 25 26 24 21 25
20 21 22 23 23 25 26 27 28 28 29 30 32 34 35 35 37 39 42 44 44 46 37 43 36 35 36 23 23 24 23 21 22 26 25 25 28 27
23 24 25 25 26 27 28 29 29 29 30 31 31 33 35 36 38 39 41 42 42 42 38 41 37 30 29 29 18 18 21 21 23 22 27 27 21 24
24 26 26 27 28 29 30 31 32 32 32 32 33 33 34 36 38 39 39 38 38 38 35 34 34 28 25 22 22 18 21 23 23 23 22 20 19 24
26 27 28 29 30 31 31 32 33 33 34 34 35 35 36 37 35 34 32 32 31 31 33 30 29 25 22 21 22 22 23 19 21 21 20 19 19 20
27 28 29 30 31 31 32 33 33 34 35 36 36 38 38 37 35 33 30 27 26 25 30 26 25 24 21 21 23 23 24 21 20 19 18 17 17 16
29 29 30 31 30 32 33 33 34 35 36 37 38 38 38 36 32 30 27 26 24 23 23 23 24 23 22 21 21 23 21 20 20 19 17 16 13 10
29 29 29 30 30 32 34 35 35 35 36 37 37 37 36 33 29 25 25 24 23 22 20 19 20 20 21 20 20 21 21 18 18 18 14 9 7 9
29 28 29 30 33 35 36 35 34 35 36 36 35 35 33 29 26 23 22 22 21 20 18 18 18 18 17 17 17 18 17 16 15 14 10 7 12 12
29 30 32 35 36 36 35 35 34 34 35 34 33 33 31 27 23 21 20 20 19 18 16 16 17 16 16 16 15 17 15 14 13 10 10 14 16 16
31 32 35 35 36 36 35 33 32 33 33 32 32 30 28 25 21 20 20 19 18 16 14 13 14 14 15 15 14 15 13 11 10 8 13 15 15 14
32 34 35 36 36 36 34 31 32 30 31 32 30 28 27 23 21 20 19 17 16 14 13 12 12 13 13 13 12 12 11 9 7 6 13 12 9 17
33 35 37 36 35 33 32 32 29 30 30 30 29 26 25 21 21 20 18 16 14 12 12 11 12 12 12 12 10 9 9 5 3 11 11 6 13 20

GFSNE_700_spd_135.txt.gz
Wind_Speed
39 39 39 39 39 40 40 41 43 47 50 45 42 37 35 30 32 34 38 33 32 34 32 34 37 42 44 42 45 42 46 47 47 46 45 45 46 45
36 35 37 39 40 39 41 41 41 42 45 44 44 31 34 39 37 32 34 34 30 36 34 38 42 42 42 42 43 45 47 48 48 48 47 48 48 48
38 36 34 36 38 39 40 42 42 43 45 44 40 39 38 46 38 34 31 34 31 34 38 42 46 47 44 43 44 45 45 47 47 47 47 48 48 49
32 33 34 34 36 39 40 43 44 43 35 35 39 41 35 30 32 39 33 33 38 40 40 43 44 43 43 44 45 46 47 48 48 48 49 49 51 50
29 32 34 35 36 38 37 36 29 29 32 27 25 32 37 34 32 34 37 41 41 40 41 42 43 43 44 46 47 48 48 48 48 48 49 49 48 48
32 33 33 33 27 27 28 25 21 28 27 28 28 30 30 31 34 34 34 38 37 39 40 41 43 43 44 46 46 47 48 49 50 50 51 51 50 49
15 19 27 28 27 24 27 25 23 26 27 29 30 30 31 32 33 34 36 36 36 38 41 40 41 41 42 44 46 48 48 48 49 50 51 50 49 48
11 12 11 12 14 19 23 25 25 26 27 28 29 30 31 34 35 37 40 41 38 35 41 35 40 39 41 42 44 46 47 47 48 47 47 45 45 44
15 15 15 17 19 21 23 24 25 26 26 28 29 31 33 37 39 39 40 42 42 38 40 42 40 39 41 42 44 44 45 46 46 43 41 40 37 35
15 16 17 18 19 21 22 24 25 26 27 30 32 33 34 35 37 37 38 39 40 39 43 47 41 41 39 38 41 42 40 41 40 38 37 35 30 27
17 18 19 20 21 21 24 25 28 29 31 32 33 34 34 35 37 39 39 41 41 40 39 45 43 44 40 35 34 35 36 37 36 34 32 27 27 28
18 19 21 22 23 24 25 26 28 29 30 32 34 35 36 36 38 39 41 42 44 46 39 44 41 43 45 31 27 28 31 32 32 31 28 27 31 30
20 21 22 23 24 25 26 27 28 29 31 32 33 35 36 37 38 39 41 43 44 43 41 43 42 35 35 37 20 20 26 27 26 28 29 29 30 30
22 23 24 25 27 28 29 30 31 33 33 34 35 35 36 37 38 40 40 41 41 42 39 38 37 34 32 30 27 19 19 22 24 26 27 28 29 28
25 26 27 27 28 30 31 32 32 33 34 34 34 36 38 39 40 41 40 40 38 35 35 35 33 32 30 30 29 21 21 19 22 23 24 26 25 25
27 27 28 29 30 30 31 32 32 33 34 36 37 38 39 39 39 38 37 35 33 28 29 33 32 31 28 26 24 22 23 23 21 21 22 25 26 25
26 26 27 28 29 30 31 31 33 35 37 39 39 39 38 38 36 38 37 33 30 27 24 26 30 28 27 24 21 23 24 22 23 21 22 23 24 22
26 26 27 27 28 30 31 33 36 38 38 38 38 38 37 35 35 35 33 30 27 25 24 23 24 24 22 20 21 20 22 21 20 20 20 21 19 13
25 26 27 28 29 30 33 34 35 36 37 36 35 36 34 34 34 31 28 26 24 23 22 22 22 21 17 18 18 20 19 19 19 17 18 17 12 6
25 27 28 29 30 32 33 34 34 35 34 32 33 31 32 32 30 27 25 23 22 21 19 20 19 17 17 16 16 17 18 17 17 15 16 12 8 3
27 28 29 30 31 32 33 34 34 32 30 30 28 29 31 31 28 26 23 22 22 20 16 16 16 16 16 16 16 14 15 14 13 13 10 7 7 9
29 29 29 29 31 33 34 33 31 29 29 27 26 29 30 29 26 24 21 21 19 18 16 15 14 14 15 15 13 13 12 11 10 9 4 5 10 10
30 28 28 31 33 33 31 30 29 27 26 26 28 29 28 26 25 22 21 20 17 15 15 14 14 14 13 13 12 11 10 8 8 5 8 7 11 14